M I D A S
Marine Information and Data Acquisition System
Tripno 1036 of the Zeeleeuw from 2006-02-24 09:06:28 to 2006-02-24 12:00:59
Back to CruiseResearch ActivitiesStationsMapUnderway DataData graphs

EquipmentUnitsComment
TimeDGPSUTC
LatitudeDGPSDM.mWGS84
LongitudeDGPSDM.mWGS84
TemperatureSBE03/SBE38deg celciusITS90
ConductivitySBE21S/mITS90
SalinitySBE21 Practical Salinity Units
ChlorophylAChelsea fluorimeterg/lCalibrated in Aceton
Missing or incorrect values are displayed as -999
Sea surface data collected by the RV Zeeleeuw from 2006-02-24 07:40:43 to 2006-02-24 12:14:37
                                                                                    Next 1000 lines
Time Latitude Longitude Temperature Conductivity Salinity ChlorophylA
2006-02-24 07:40:53 51°13.597 2°56.094 -999 0.053251 0.331804 1.645828
2006-02-24 07:40:58 51°13.597 2°56.092 -999 0.053251 0.331797 1.645828
2006-02-24 07:41:03 51°13.598 2°56.089 -999 0.053251 0.331797 1.645828
2006-02-24 07:41:08 51°13.599 2°56.086 -999 0.053251 0.331797 1.645828
2006-02-24 07:41:13 51°13.6 2°56.083 -999 0.053251 0.331797 1.645828
2006-02-24 07:41:18 51°13.601 2°56.079 -999 0.053251 0.33179 1.645828
2006-02-24 07:41:24 51°13.603 2°56.073 -999 0.053251 0.33179 1.645828
2006-02-24 07:41:29 51°13.604 2°56.068 -999 0.053251 0.33179 1.645828
2006-02-24 07:41:34 51°13.606 2°56.062 -999 0.053251 0.331783 1.645828
2006-02-24 07:41:39 51°13.608 2°56.055 -999 0.053251 0.331783 1.645828
2006-02-24 07:41:44 51°13.61 2°56.048 -999 0.053251 0.331783 1.645828
2006-02-24 07:41:48 51°13.611 2°56.042 -999 0.053251 0.331783 1.645828
2006-02-24 07:41:54 51°13.614 2°56.033 -999 0.053251 0.331776 1.645828
2006-02-24 07:41:59 51°13.616 2°56.024 -999 0.053251 0.331776 1.645828
2006-02-24 07:42:04 51°13.619 2°56.015 -999 0.053251 0.331769 1.645828
2006-02-24 07:42:08 51°13.621 2°56.008 -999 0.053251 0.331769 1.645828
2006-02-24 07:42:14 51°13.624 2°55.997 -999 0.053251 0.331769 1.645828
2006-02-24 07:42:19 51°13.627 2°55.987 -999 0.053251 0.331769 1.645828
2006-02-24 07:42:24 51°13.63 2°55.977 -999 0.053251 0.331762 1.645828
2006-02-24 07:42:29 51°13.632 2°55.967 -999 0.053251 0.331762 1.645828
2006-02-24 07:42:34 51°13.635 2°55.957 -999 0.053251 0.331755 1.645828
2006-02-24 07:42:39 51°13.639 2°55.947 -999 0.053251 0.331755 1.645828
2006-02-24 07:42:44 51°13.641 2°55.936 -999 0.053251 0.331755 1.645828
2006-02-24 07:42:49 51°13.644 2°55.926 -999 0.053251 0.331755 1.645828
2006-02-24 07:42:54 51°13.648 2°55.915 -999 0.053251 0.331755 1.645828
2006-02-24 07:42:59 51°13.651 2°55.904 -999 0.053251 0.331755 1.645828
2006-02-24 07:43:04 51°13.654 2°55.893 -999 0.053251 0.331748 1.645828
2006-02-24 07:43:08 51°13.657 2°55.884 -999 0.053251 0.331748 1.645828
2006-02-24 07:43:14 51°13.661 2°55.87 -999 0.053251 0.331748 1.645828
2006-02-24 07:43:19 51°13.664 2°55.859 -999 0.053251 0.331748 1.645828
2006-02-24 07:43:24 51°13.667 2°55.848 -999 0.053251 0.331741 1.679537
2006-02-24 07:43:29 51°13.67 2°55.838 -999 0.053251 0.331741 1.645828
2006-02-24 07:43:34 51°13.673 2°55.828 -999 0.053251 0.331734 1.679537
2006-02-24 07:43:39 51°13.675 2°55.819 -999 0.053251 0.331734 1.679537
2006-02-24 07:43:44 51°13.678 2°55.81 -999 0.053251 0.331734 1.645828
2006-02-24 07:43:48 51°13.68 2°55.803 -999 0.053251 0.331734 1.645828
2006-02-24 07:43:54 51°13.682 2°55.793 -999 0.053251 0.331727 1.645828
2006-02-24 07:43:58 51°13.684 2°55.787 -999 0.053251 0.331727 1.645828
2006-02-24 07:44:03 51°13.686 2°55.779 -999 0.053251 0.331727 1.645828
2006-02-24 07:44:08 51°13.687 2°55.772 -999 0.053251 0.331727 1.645828
2006-02-24 07:44:14 51°13.689 2°55.764 -999 0.053251 0.33172 1.645828
2006-02-24 07:44:19 51°13.69 2°55.758 -999 0.053251 0.33172 1.645828
2006-02-24 07:44:24 51°13.692 2°55.753 -999 0.053251 0.331713 1.645828
2006-02-24 07:44:28 51°13.692 2°55.749 -999 0.053251 0.331713 1.645828
2006-02-24 07:44:34 51°13.693 2°55.746 -999 0.053251 0.331713 1.645828
2006-02-24 07:44:39 51°13.694 2°55.744 -999 0.053251 0.331713 1.645828
2006-02-24 07:44:44 51°13.695 2°55.744 -999 0.053251 0.331713 1.645828
2006-02-24 07:44:49 51°13.695 2°55.744 -999 0.053251 0.331713 1.645828
2006-02-24 07:44:54 51°13.696 2°55.744 -999 0.053251 0.331713 1.679537
2006-02-24 07:44:59 51°13.696 2°55.744 -999 0.053251 0.331713 1.645828
2006-02-24 07:45:04 51°13.697 2°55.742 -999 0.053251 0.331706 1.679537
2006-02-24 07:45:08 51°13.697 2°55.741 -999 0.053251 0.331713 1.645828
2006-02-24 07:45:14 51°13.697 2°55.739 -999 0.053251 0.331713 1.645828
2006-02-24 07:45:19 51°13.697 2°55.737 -999 0.053251 0.331706 1.645828
2006-02-24 07:45:24 51°13.697 2°55.735 -999 0.053251 0.331706 1.645828
2006-02-24 07:45:29 51°13.697 2°55.734 -999 0.053251 0.331699 1.645828
2006-02-24 07:45:34 51°13.698 2°55.733 -999 0.053251 0.331699 1.679537
2006-02-24 07:45:38 51°13.698 2°55.733 -999 0.053251 0.331699 1.679537
2006-02-24 07:45:44 51°13.7 2°55.733 -999 0.053251 0.331692 1.679537
2006-02-24 07:45:48 51°13.701 2°55.733 -999 0.053251 0.331685 1.679537
2006-02-24 07:45:54 51°13.704 2°55.734 -999 0.053251 0.331685 1.679537
2006-02-24 07:45:59 51°13.707 2°55.734 -999 0.053353 0.332347 1.645828
2006-02-24 07:46:04 51°13.71 2°55.735 -999 0.053251 0.331685 1.645828
2006-02-24 07:46:09 51°13.714 2°55.735 -999 0.053251 0.331685 1.645828
2006-02-24 07:46:14 51°13.718 2°55.734 -999 0.053251 0.331685 1.645828
2006-02-24 07:46:19 51°13.722 2°55.732 -999 0.053353 0.33234 1.645828
2006-02-24 07:46:24 51°13.726 2°55.73 -999 0.053251 0.331678 1.645828
2006-02-24 07:46:28 51°13.729 2°55.728 -999 0.053251 0.331685 1.679537
2006-02-24 07:46:34 51°13.734 2°55.723 -999 0.053251 0.331678 1.679537
2006-02-24 07:46:38 51°13.737 2°55.719 -999 0.053353 0.33234 1.645828
2006-02-24 07:46:43 51°13.742 2°55.715 -999 0.053353 0.33234 1.645828
2006-02-24 07:46:48 51°13.746 2°55.709 -999 0.053353 0.332333 1.679537
2006-02-24 07:46:54 51°13.753 2°55.703 -999 0.053251 0.331664 1.645828
2006-02-24 07:46:59 51°13.758 2°55.698 -999 0.053251 0.33165 1.679537
2006-02-24 07:47:03 51°13.763 2°55.694 -999 0.053353 0.332305 1.679537
2006-02-24 07:47:08 51°13.769 2°55.688 -999 0.053353 0.332298 1.645828
2006-02-24 07:47:13 51°13.775 2°55.682 -999 0.053353 0.332298 1.645828
2006-02-24 07:47:18 51°13.781 2°55.675 -999 0.053251 0.331629 1.645828
2006-02-24 07:47:23 51°13.788 2°55.668 -999 0.053353 0.332284 1.645828
2006-02-24 07:47:28 51°13.795 2°55.662 -999 0.053251 0.331622 1.679537
2006-02-24 07:47:34 51°13.803 2°55.655 -999 0.053353 0.332277 1.645828
2006-02-24 07:47:38 51°13.809 2°55.65 -999 0.053353 0.332277 1.645828
2006-02-24 07:47:43 51°13.817 2°55.643 -999 0.053353 0.332277 1.645828
2006-02-24 07:47:48 51°13.825 2°55.637 -999 0.053353 0.332284 1.679537
2006-02-24 07:47:53 51°13.833 2°55.632 -999 0.053353 0.332284 1.679537
2006-02-24 07:47:58 51°13.841 2°55.626 -999 0.053353 0.332284 1.679537
2006-02-24 07:48:04 51°13.851 2°55.619 -999 0.053353 0.332291 1.679537
2006-02-24 07:48:09 51°13.859 2°55.613 -999 0.053353 0.332291 1.679537
2006-02-24 07:48:14 51°13.867 2°55.606 -999 0.053353 0.332291 1.679537
2006-02-24 07:48:19 51°13.876 2°55.6 -999 0.053353 0.332298 1.679537
2006-02-24 07:48:24 51°13.884 2°55.594 -999 0.053353 0.332298 1.679537
2006-02-24 07:48:29 51°13.893 2°55.587 -999 0.053251 0.331636 1.679537
2006-02-24 07:48:34 51°13.902 2°55.582 -999 0.053251 0.331636 1.679537
2006-02-24 07:48:39 51°13.911 2°55.576 -999 0.053353 0.332305 1.679537
2006-02-24 07:48:44 51°13.92 2°55.57 -999 0.053353 0.332305 1.679537
2006-02-24 07:48:49 51°13.929 2°55.564 -999 0.053353 0.332305 1.679537
2006-02-24 07:48:54 51°13.938 2°55.558 -999 0.053353 0.332305 1.679537
2006-02-24 07:48:58 51°13.945 2°55.553 -999 0.053353 0.332312 1.679537
2006-02-24 07:49:04 51°13.955 2°55.546 -999 0.053353 0.332312 1.679537
2006-02-24 07:49:08 51°13.963 2°55.541 -999 0.053353 0.332312 1.679537
2006-02-24 07:49:14 51°13.974 2°55.534 -999 0.053353 0.332312 1.679537
2006-02-24 07:49:19 51°13.983 2°55.527 -999 0.053353 0.332312 1.679537
2006-02-24 07:49:24 51°13.992 2°55.521 -999 0.053353 0.332312 1.679537
2006-02-24 07:49:29 51°14.002 2°55.514 -999 0.053353 0.332312 1.679537
2006-02-24 07:49:34 51°14.012 2°55.508 -999 0.053353 0.332312 1.679537
2006-02-24 07:49:39 51°14.021 2°55.501 -999 0.053353 0.332312 1.679537
2006-02-24 07:49:44 51°14.031 2°55.494 -999 0.053353 0.332312 1.679537
2006-02-24 07:49:48 51°14.039 2°55.488 -999 0.053353 0.332312 1.679537
2006-02-24 07:49:54 51°14.05 2°55.48 -999 0.053353 0.332305 1.679537
2006-02-24 07:49:59 51°14.06 2°55.473 -999 0.053353 0.332305 1.679537
2006-02-24 07:50:04 51°14.07 2°55.466 -999 0.053353 0.332305 1.679537
2006-02-24 07:50:09 51°14.08 2°55.459 -999 0.053353 0.332305 1.679537
2006-02-24 07:50:14 51°14.09 2°55.452 -999 0.053353 0.332305 1.679537
2006-02-24 07:50:18 51°14.098 2°55.446 -999 0.053353 0.332305 1.679537
2006-02-24 07:50:24 51°14.11 2°55.437 -999 0.053353 0.332305 1.679537
2006-02-24 07:50:29 51°14.12 2°55.429 -999 0.053353 0.332305 1.679537
2006-02-24 07:50:34 51°14.13 2°55.421 -999 0.053353 0.332305 1.645828
2006-02-24 07:50:39 51°14.14 2°55.413 -999 0.053353 0.332305 1.679537
2006-02-24 07:50:44 51°14.15 2°55.405 -999 0.053353 0.332305 1.679537
2006-02-24 07:50:48 51°14.157 2°55.398 -999 0.053353 0.332305 1.679537
2006-02-24 07:50:54 51°14.169 2°55.387 -999 0.053353 0.332305 1.679537
2006-02-24 07:50:59 51°14.178 2°55.378 -999 0.053353 0.332305 1.679537
2006-02-24 07:51:04 51°14.187 2°55.368 -999 0.053353 0.332305 1.679537
2006-02-24 07:51:09 51°14.196 2°55.358 -999 0.053353 0.332305 1.679537
2006-02-24 07:51:14 51°14.204 2°55.347 -999 0.053353 0.332305 1.679537
2006-02-24 07:51:19 51°14.213 2°55.336 -999 0.053353 0.332305 1.679537
2006-02-24 07:51:24 51°14.221 2°55.324 -999 0.053353 0.332305 1.679537
2006-02-24 07:51:28 51°14.228 2°55.315 -999 0.053353 0.332305 1.679537
2006-02-24 07:51:34 51°14.237 2°55.3 -999 0.053353 0.332305 1.713247
2006-02-24 07:51:39 51°14.245 2°55.288 -999 0.053353 0.332305 1.713247
2006-02-24 07:51:44 51°14.253 2°55.275 -999 0.053353 0.332305 1.713247
2006-02-24 07:51:48 51°14.258 2°55.264 -999 0.053353 0.332312 1.679537
2006-02-24 07:51:54 51°14.267 2°55.248 -999 0.053353 0.332305 1.679537
2006-02-24 07:51:59 51°14.274 2°55.235 -999 0.053353 0.332305 1.679537
2006-02-24 07:52:03 51°14.28 2°55.224 -999 0.053353 0.332305 1.679537
2006-02-24 07:52:08 51°14.287 2°55.21 -999 0.053353 0.332305 1.713247
2006-02-24 07:52:14 51°14.295 2°55.194 -999 0.053353 0.332305 1.713247
2006-02-24 07:52:18 51°14.301 2°55.183 -999 0.053353 0.332298 1.679537
2006-02-24 07:52:23 51°14.308 2°55.169 -999 0.053353 0.332298 1.679537
2006-02-24 07:52:28 51°14.315 2°55.155 -999 0.053353 0.332298 1.679537
2006-02-24 07:52:33 51°14.321 2°55.141 -999 0.053353 0.332298 1.679537
2006-02-24 07:52:38 51°14.328 2°55.127 -999 0.053353 0.332298 1.679537
2006-02-24 07:52:43 51°14.335 2°55.112 -999 0.053353 0.332298 1.679537
2006-02-24 07:52:48 51°14.341 2°55.098 -999 0.053353 0.332298 1.679537
2006-02-24 07:52:54 51°14.349 2°55.08 -999 0.053353 0.332298 1.679537
2006-02-24 07:52:59 51°14.356 2°55.066 -999 0.053353 0.332298 1.679537
2006-02-24 07:53:03 51°14.361 2°55.054 -999 0.053353 0.332298 1.713247
2006-02-24 07:53:08 51°14.368 2°55.04 -999 0.053353 0.332291 1.679537
2006-02-24 07:53:13 51°14.375 2°55.026 -999 0.053353 0.332291 1.679537
2006-02-24 07:53:18 51°14.382 2°55.011 -999 0.053353 0.332298 1.679537
2006-02-24 07:53:23 51°14.39 2°54.996 -999 0.053353 0.332298 1.713247
2006-02-24 07:53:28 51°14.397 2°54.98 -999 0.053353 0.332298 1.679537
2006-02-24 07:53:33 51°14.404 2°54.964 -999 0.053353 0.332298 1.679537
2006-02-24 07:53:38 51°14.409 2°54.946 -999 0.053353 0.332305 1.679537
2006-02-24 07:53:44 51°14.415 2°54.925 -999 0.053353 0.332305 1.679537
2006-02-24 07:53:48 51°14.418 2°54.909 -999 0.053353 0.332305 1.679537
2006-02-24 07:53:53 51°14.421 2°54.89 -999 0.053353 0.332305 1.679537
2006-02-24 07:53:58 51°14.425 2°54.869 -999 0.053353 0.332312 1.679537
2006-02-24 07:54:03 51°14.426 2°54.848 -999 0.053353 0.332305 1.679537
2006-02-24 07:54:08 51°14.428 2°54.827 -999 0.053353 0.332312 1.679537
2006-02-24 07:54:13 51°14.429 2°54.804 -999 0.053353 0.332312 1.679537
2006-02-24 07:54:18 51°14.43 2°54.781 -999 0.053353 0.332305 1.679537
2006-02-24 07:54:23 51°14.432 2°54.757 -999 0.053353 0.332305 1.679537
2006-02-24 07:54:28 51°14.434 2°54.732 -999 0.053353 0.332305 1.679537
2006-02-24 07:54:33 51°14.435 2°54.707 -999 0.053353 0.332305 1.679537
2006-02-24 07:54:38 51°14.435 2°54.681 -999 0.053353 0.332305 1.679537
2006-02-24 07:54:43 51°14.435 2°54.655 -999 0.053353 0.332298 1.679537
2006-02-24 07:54:48 51°14.435 2°54.629 -999 0.053353 0.332298 1.679537
2006-02-24 07:54:53 51°14.433 2°54.602 -999 0.053353 0.332298 1.679537
2006-02-24 07:54:58 51°14.431 2°54.576 -999 0.053353 0.332298 1.679537
2006-02-24 07:55:03 51°14.428 2°54.55 -999 0.053353 0.332298 1.679537
2006-02-24 07:55:08 51°14.423 2°54.525 -999 0.053353 0.332291 1.679537
2006-02-24 07:55:13 51°14.42 2°54.499 -999 0.053353 0.332291 1.679537
2006-02-24 07:55:18 51°14.415 2°54.474 -999 0.053353 0.332298 1.713247
2006-02-24 07:55:23 51°14.41 2°54.449 -999 0.053353 0.332284 1.679537
2006-02-24 07:55:28 51°14.403 2°54.425 -999 0.053353 0.332291 1.679537
2006-02-24 07:55:33 51°14.398 2°54.4 -999 0.053353 0.332291 1.679537
2006-02-24 07:55:38 51°14.39 2°54.376 -999 0.053353 0.332284 1.679537
2006-02-24 07:55:43 51°14.384 2°54.351 -999 0.053353 0.332284 1.679537
2006-02-24 07:55:48 51°14.375 2°54.328 -999 0.053353 0.332291 1.679537
2006-02-24 07:55:53 51°14.368 2°54.304 -999 0.053353 0.332298 1.713247
2006-02-24 07:55:58 51°14.358 2°54.282 -999 0.053353 0.332284 1.713247
2006-02-24 07:56:03 51°14.35 2°54.258 -999 0.053353 0.332298 1.713247
2006-02-24 07:56:08 51°14.34 2°54.237 -999 0.053353 0.332291 1.713247
2006-02-24 07:56:13 51°14.331 2°54.214 -999 0.053353 0.332291 1.713247
2006-02-24 07:56:18 51°14.322 2°54.191 -999 0.053353 0.332291 1.679537
2006-02-24 07:56:23 51°14.313 2°54.168 -999 0.053353 0.332291 1.713247
2006-02-24 07:56:28 51°14.304 2°54.145 -999 0.053353 0.332291 1.713247
2006-02-24 07:56:33 51°14.295 2°54.122 -999 0.053353 0.332284 1.713247
2006-02-24 07:56:38 51°14.287 2°54.099 -999 0.053353 0.332284 1.713247
2006-02-24 07:56:43 51°14.279 2°54.075 -999 0.053353 0.332284 1.713247
2006-02-24 07:56:48 51°14.271 2°54.051 -999 0.053353 0.332277 1.713247
2006-02-24 07:56:53 51°14.263 2°54.028 -999 0.053353 0.332284 1.713247
2006-02-24 07:56:58 51°14.254 2°54.006 -999 0.053353 0.332277 1.713247
2006-02-24 07:57:03 51°14.246 2°53.982 -999 0.053353 0.332284 1.713247
2006-02-24 07:57:08 51°14.237 2°53.96 -999 0.053353 0.33227 1.713247
2006-02-24 07:57:13 51°14.229 2°53.936 -999 0.053353 0.33227 1.713247
2006-02-24 07:57:18 51°14.22 2°53.913 -999 0.053353 0.332277 1.713247
2006-02-24 07:57:23 51°14.213 2°53.889 -999 0.053353 0.332277 1.713247
2006-02-24 07:57:28 51°14.205 2°53.866 -999 0.053353 0.33227 1.713247
2006-02-24 07:57:33 51°14.197 2°53.843 -999 0.053353 0.332277 1.713247
2006-02-24 07:57:38 51°14.188 2°53.82 -999 0.053353 0.332277 1.713247
2006-02-24 07:57:43 51°14.179 2°53.798 -999 0.053353 0.332277 1.713247
2006-02-24 07:57:48 51°14.172 2°53.774 -999 0.053353 0.332263 1.713247
2006-02-24 07:57:53 51°14.162 2°53.752 -999 0.053353 0.33227 1.679537
2006-02-24 07:57:58 51°14.154 2°53.728 -999 0.053353 0.33227 1.713247
2006-02-24 07:58:03 51°14.145 2°53.706 -999 0.053353 0.332263 1.713247
2006-02-24 07:58:08 51°14.137 2°53.682 -999 0.053353 0.332263 1.713247
2006-02-24 07:58:13 51°14.128 2°53.659 -999 0.053353 0.332263 1.713247
2006-02-24 07:58:18 51°14.12 2°53.636 -999 0.053353 0.332263 1.713247
2006-02-24 07:58:23 51°14.11 2°53.613 -999 0.053353 0.332263 1.713247
2006-02-24 07:58:28 51°14.103 2°53.59 -999 0.053353 0.332263 1.713247
2006-02-24 07:58:33 51°14.093 2°53.569 -999 0.053353 0.332256 1.713247
2006-02-24 07:58:38 51°14.085 2°53.544 -999 0.053353 0.332263 1.713247
2006-02-24 07:58:43 51°14.075 2°53.523 -999 0.053353 0.332263 1.713247
2006-02-24 07:58:48 51°14.067 2°53.499 -999 0.053353 0.332256 1.713247
2006-02-24 07:58:53 51°14.058 2°53.477 -999 0.053353 0.332256 1.713247
2006-02-24 07:58:58 51°14.049 2°53.453 -999 0.053353 0.332256 1.679537
2006-02-24 07:59:03 51°14.04 2°53.43 -999 0.053353 0.332249 1.679537
2006-02-24 07:59:08 51°14.032 2°53.407 -999 0.053353 0.332256 1.713247
2006-02-24 07:59:13 51°14.024 2°53.384 -999 0.053353 0.332256 1.713247
2006-02-24 07:59:18 51°14.016 2°53.359 -999 0.053353 0.332242 1.679537
2006-02-24 07:59:24 51°14.006 2°53.332 -999 0.053353 0.332249 1.713247
2006-02-24 07:59:28 51°13.999 2°53.313 -999 0.053353 0.332242 1.679537
2006-02-24 07:59:33 51°13.991 2°53.29 -999 0.053353 0.332242 1.679537
2006-02-24 07:59:38 51°13.982 2°53.267 -999 0.053353 0.332235 1.679537
2006-02-24 07:59:43 51°13.973 2°53.244 -999 0.053353 0.332235 1.679537
2006-02-24 07:59:48 51°13.964 2°53.222 -999 0.053353 0.332235 1.679537
2006-02-24 07:59:53 51°13.956 2°53.198 -999 0.053353 0.332228 1.679537
2006-02-24 07:59:58 51°13.947 2°53.174 -999 0.053353 0.332228 1.679537
2006-02-24 08:00:03 51°13.939 2°53.151 -999 0.053353 0.332228 1.679537
2006-02-24 08:00:08 51°13.93 2°53.127 -999 0.053353 0.332221 1.679537
2006-02-24 08:00:14 51°13.92 2°53.099 -999 0.053353 0.332221 1.679537
2006-02-24 08:00:18 51°13.914 2°53.08 -999 0.053353 0.332221 1.679537
2006-02-24 08:00:23 51°13.905 2°53.057 -999 0.053353 0.332228 1.679537
2006-02-24 08:00:28 51°13.896 2°53.033 -999 0.053353 0.332214 1.713247
2006-02-24 08:00:33 51°13.889 2°53.009 -999 0.053353 0.332221 1.679537
2006-02-24 08:00:38 51°13.88 2°52.986 -999 0.053353 0.332221 1.679537
2006-02-24 08:00:43 51°13.871 2°52.963 -999 0.053353 0.332221 1.679537
2006-02-24 08:00:48 51°13.863 2°52.939 -999 0.053353 0.332207 1.679537
2006-02-24 08:00:53 51°13.855 2°52.916 -999 0.053353 0.332214 1.713247
2006-02-24 08:00:58 51°13.846 2°52.893 -999 0.053353 0.332207 1.713247
2006-02-24 08:01:03 51°13.838 2°52.869 -999 0.053353 0.3322 1.713247
2006-02-24 08:01:08 51°13.831 2°52.844 -999 0.053353 0.332214 1.713247
2006-02-24 08:01:13 51°13.821 2°52.822 -999 0.053353 0.332214 1.713247
2006-02-24 08:01:18 51°13.814 2°52.797 -999 0.053353 0.3322 1.713247
2006-02-24 08:01:24 51°13.803 2°52.77 -999 0.053353 0.3322 1.713247
2006-02-24 08:01:28 51°13.797 2°52.751 -999 0.053353 0.332207 1.713247
2006-02-24 08:01:33 51°13.788 2°52.728 -999 0.053353 0.332193 1.713247
2006-02-24 08:01:38 51°13.781 2°52.704 -999 0.053353 0.3322 1.713247
2006-02-24 08:01:43 51°13.771 2°52.681 -999 0.053353 0.3322 1.713247
2006-02-24 08:01:48 51°13.764 2°52.656 -999 0.053353 0.3322 1.713247
2006-02-24 08:01:53 51°13.754 2°52.634 -999 0.053353 0.3322 1.713247
2006-02-24 08:01:58 51°13.747 2°52.609 -999 0.053353 0.3322 1.713247
2006-02-24 08:02:03 51°13.738 2°52.586 -999 0.053353 0.332193 1.713247
2006-02-24 08:02:08 51°13.73 2°52.562 -999 0.053353 0.3322 1.713247
2006-02-24 08:02:14 51°13.72 2°52.533 -999 0.053353 0.3322 1.713247
2006-02-24 08:02:18 51°13.713 2°52.514 -999 0.053353 0.332193 1.713247
2006-02-24 08:02:23 51°13.705 2°52.491 -999 0.053353 0.332186 1.713247
2006-02-24 08:02:28 51°13.697 2°52.467 -999 0.053353 0.332186 1.713247
2006-02-24 08:02:33 51°13.688 2°52.443 -999 0.053353 0.332179 1.713247
2006-02-24 08:02:38 51°13.68 2°52.419 -999 0.053353 0.332179 1.713247
2006-02-24 08:02:43 51°13.673 2°52.394 -999 0.053353 0.332179 1.713247
2006-02-24 08:02:48 51°13.665 2°52.371 -999 0.053353 0.332179 1.713247
2006-02-24 08:02:53 51°13.656 2°52.347 -999 0.053353 0.332179 1.713247
2006-02-24 08:02:58 51°13.648 2°52.323 -999 0.053353 0.332172 1.713247
2006-02-24 08:03:03 51°13.639 2°52.3 -999 0.053353 0.332179 1.713247
2006-02-24 08:03:08 51°13.63 2°52.277 -999 0.053353 0.332172 1.713247
2006-02-24 08:03:13 51°13.622 2°52.253 -999 0.053353 0.332172 1.713247
2006-02-24 08:03:18 51°13.613 2°52.23 -999 0.053353 0.332165 1.713247
2006-02-24 08:03:23 51°13.604 2°52.207 -999 0.053353 0.332165 1.713247
2006-02-24 08:03:28 51°13.596 2°52.183 -999 0.053353 0.332172 1.713247
2006-02-24 08:03:33 51°13.587 2°52.16 -999 0.053353 0.332158 1.713247
2006-02-24 08:03:38 51°13.58 2°52.135 -999 0.053353 0.332158 1.713247
2006-02-24 08:03:43 51°13.57 2°52.113 -999 0.053353 0.332165 1.679537
2006-02-24 08:03:48 51°13.562 2°52.089 -999 0.053353 0.332165 1.679537
2006-02-24 08:03:53 51°13.552 2°52.067 -999 0.053353 0.332158 1.713247
2006-02-24 08:03:58 51°13.545 2°52.043 -999 0.053353 0.332165 1.713247
2006-02-24 08:04:03 51°13.535 2°52.021 -999 0.053353 0.332158 1.713247
2006-02-24 08:04:08 51°13.526 2°51.998 -999 0.053353 0.332158 1.713247
2006-02-24 08:04:13 51°13.518 2°51.975 -999 0.053353 0.332158 1.713247
2006-02-24 08:04:18 51°13.509 2°51.951 -999 0.053353 0.332158 1.713247
2006-02-24 08:04:23 51°13.501 2°51.927 -999 0.053353 0.332158 1.713247
2006-02-24 08:04:28 51°13.492 2°51.904 -999 0.053353 0.332151 1.713247
2006-02-24 08:04:33 51°13.484 2°51.88 -999 0.053353 0.332151 1.713247
2006-02-24 08:04:38 51°13.475 2°51.857 -999 0.053353 0.332144 1.713247
2006-02-24 08:04:43 51°13.467 2°51.833 -999 0.053353 0.332144 1.713247
2006-02-24 08:04:48 51°13.459 2°51.81 -999 0.053353 0.332151 1.713247
2006-02-24 08:04:54 51°13.448 2°51.782 -999 0.053353 0.332144 1.679537
2006-02-24 08:04:58 51°13.442 2°51.763 -999 0.053353 0.332144 1.713247
2006-02-24 08:05:03 51°13.433 2°51.741 -999 0.053353 0.332137 1.713247
2006-02-24 08:05:08 51°13.424 2°51.717 -999 0.053353 0.332137 1.713247
2006-02-24 08:05:13 51°13.416 2°51.694 -999 0.053353 0.332137 1.713247
2006-02-24 08:05:18 51°13.407 2°51.671 -999 0.053353 0.332137 1.713247
2006-02-24 08:05:24 51°13.396 2°51.644 -999 0.053353 0.33213 1.713247
2006-02-24 08:05:28 51°13.389 2°51.625 -999 0.053353 0.33213 1.713247
2006-02-24 08:05:33 51°13.381 2°51.602 -999 0.053353 0.332123 1.713247
2006-02-24 08:05:38 51°13.373 2°51.579 -999 0.053353 0.332123 1.713247
2006-02-24 08:05:43 51°13.365 2°51.556 -999 0.053353 0.332123 1.713247
2006-02-24 08:05:48 51°13.355 2°51.533 -999 0.053353 0.332123 1.713247
2006-02-24 08:05:53 51°13.348 2°51.509 -999 0.053353 0.332123 1.713247
2006-02-24 08:05:58 51°13.338 2°51.487 -999 0.053353 0.332123 1.679537
2006-02-24 08:06:03 51°13.33 2°51.463 -999 0.053353 0.332116 1.713247
2006-02-24 08:06:08 51°13.321 2°51.44 -999 0.053353 0.332123 1.713247
2006-02-24 08:06:13 51°13.312 2°51.417 -999 0.053353 0.332123 1.713247
2006-02-24 08:06:18 51°13.303 2°51.394 -999 0.053353 0.332116 1.713247
2006-02-24 08:06:23 51°13.294 2°51.37 -999 0.053353 0.332116 1.713247
2006-02-24 08:06:28 51°13.286 2°51.346 -999 0.053353 0.332109 1.713247
2006-02-24 08:06:33 51°13.277 2°51.323 -999 0.053353 0.332109 1.713247
2006-02-24 08:06:38 51°13.269 2°51.299 -999 0.053353 0.332109 1.713247
2006-02-24 08:06:43 51°13.26 2°51.276 -999 0.053353 0.332109 1.713247
2006-02-24 08:06:48 51°13.251 2°51.253 -999 0.053353 0.332109 1.713247
2006-02-24 08:06:53 51°13.243 2°51.229 -999 0.053353 0.332102 1.713247
2006-02-24 08:06:58 51°13.234 2°51.206 -999 0.053353 0.332102 1.713247
2006-02-24 08:07:03 51°13.226 2°51.182 -999 0.053353 0.332102 1.713247
2006-02-24 08:07:08 51°13.217 2°51.159 -999 0.053353 0.332095 1.713247
2006-02-24 08:07:13 51°13.209 2°51.135 -999 0.053353 0.332095 1.713247
2006-02-24 08:07:18 51°13.2 2°51.112 -999 0.053353 0.332102 1.713247
2006-02-24 08:07:23 51°13.192 2°51.088 -999 0.053353 0.332102 1.713247
2006-02-24 08:07:28 51°13.183 2°51.065 -999 0.053353 0.332095 1.713247
2006-02-24 08:07:33 51°13.175 2°51.042 -999 0.053353 0.332102 1.713247
2006-02-24 08:07:38 51°13.166 2°51.018 -999 0.053353 0.332095 1.713247
2006-02-24 08:07:43 51°13.157 2°50.995 -999 0.053353 0.332095 1.713247
2006-02-24 08:07:48 51°13.149 2°50.972 -999 0.053353 0.332088 1.713247
2006-02-24 08:07:53 51°13.14 2°50.949 -999 0.053353 0.332088 1.713247
2006-02-24 08:07:58 51°13.132 2°50.925 -999 0.053353 0.332088 1.713247
2006-02-24 08:08:03 51°13.123 2°50.902 -999 0.053353 0.332088 1.679537
2006-02-24 08:08:08 51°13.115 2°50.879 -999 0.053353 0.332081 1.713247
2006-02-24 08:08:13 51°13.106 2°50.856 -999 0.053353 0.332081 1.713247
2006-02-24 08:08:18 51°13.096 2°50.833 -999 0.053353 0.332081 1.713247
2006-02-24 08:08:23 51°13.088 2°50.809 -999 0.053353 0.332081 1.713247
2006-02-24 08:08:28 51°13.079 2°50.787 -999 0.053353 0.332081 1.713247
2006-02-24 08:08:33 51°13.071 2°50.763 -999 0.053353 0.332074 1.713247
2006-02-24 08:08:38 51°13.062 2°50.74 -999 0.053353 0.332074 1.713247
2006-02-24 08:08:43 51°13.053 2°50.717 -999 0.053353 0.332074 1.713247
2006-02-24 08:08:48 51°13.044 2°50.694 -999 0.053353 0.332081 1.713247
2006-02-24 08:08:53 51°13.036 2°50.67 -999 0.053353 0.332074 1.713247
2006-02-24 08:08:58 51°13.027 2°50.647 -999 0.053353 0.33206 1.713247
2006-02-24 08:09:03 51°13.019 2°50.623 -999 0.053353 0.332074 1.713247
2006-02-24 08:09:08 51°13.01 2°50.6 -999 0.053353 0.332067 1.713247
2006-02-24 08:09:13 51°13.003 2°50.575 -999 0.053353 0.332067 1.713247
2006-02-24 08:09:18 51°12.993 2°50.553 -999 0.053353 0.332074 1.713247
2006-02-24 08:09:23 51°12.985 2°50.529 -999 0.053353 0.332074 1.713247
2006-02-24 08:09:28 51°12.976 2°50.507 -999 0.053353 0.332074 1.713247
2006-02-24 08:09:33 51°12.967 2°50.484 -999 0.053353 0.332067 1.713247
2006-02-24 08:09:38 51°12.959 2°50.46 -999 0.053353 0.332067 1.713247
2006-02-24 08:09:43 51°12.95 2°50.436 -999 0.053353 0.332067 1.713247
2006-02-24 08:09:48 51°12.942 2°50.413 -999 0.053353 0.33206 1.713247
2006-02-24 08:09:53 51°12.934 2°50.389 -999 0.053353 0.33206 1.713247
2006-02-24 08:09:58 51°12.925 2°50.366 -999 0.053353 0.33206 1.713247
2006-02-24 08:10:03 51°12.917 2°50.342 -999 0.053353 0.33206 1.713247
2006-02-24 08:10:08 51°12.908 2°50.319 -999 0.053353 0.332053 1.713247
2006-02-24 08:10:13 51°12.9 2°50.295 -999 0.053353 0.332053 1.713247
2006-02-24 08:10:18 51°12.892 2°50.271 -999 0.053353 0.332053 1.713247
2006-02-24 08:10:23 51°12.884 2°50.247 -999 0.053353 0.332053 1.713247
2006-02-24 08:10:28 51°12.875 2°50.223 -999 0.053353 0.332046 1.713247
2006-02-24 08:10:33 51°12.868 2°50.199 -999 0.053353 0.33206 1.713247
2006-02-24 08:10:38 51°12.858 2°50.177 -999 0.053353 0.33206 1.713247
2006-02-24 08:10:43 51°12.851 2°50.152 -999 0.053353 0.332039 1.713247
2006-02-24 08:10:48 51°12.842 2°50.13 -999 0.053353 0.332046 1.713247
2006-02-24 08:10:54 51°12.832 2°50.1 -999 0.053353 0.332039 1.713247
2006-02-24 08:10:58 51°12.826 2°50.081 -999 0.053353 0.332039 1.713247
2006-02-24 08:11:03 51°12.818 2°50.056 -999 0.053353 0.332039 1.713247
2006-02-24 08:11:08 51°12.811 2°50.031 -999 0.053353 0.332039 1.713247
2006-02-24 08:11:13 51°12.803 2°50.008 -999 0.053353 0.332039 1.713247
2006-02-24 08:11:18 51°12.796 2°49.983 -999 0.053353 0.332032 1.713247
2006-02-24 08:11:23 51°12.788 2°49.959 -999 0.053353 0.332039 1.713247
2006-02-24 08:11:28 51°12.78 2°49.935 -999 0.053353 0.332032 1.713247
2006-02-24 08:11:33 51°12.772 2°49.911 -999 0.053353 0.332039 1.713247
2006-02-24 08:11:38 51°12.764 2°49.887 -999 0.053353 0.332032 1.713247
2006-02-24 08:11:43 51°12.756 2°49.864 -999 0.053353 0.332032 1.713247
2006-02-24 08:11:48 51°12.747 2°49.841 -999 0.053353 0.332032 1.713247
2006-02-24 08:11:53 51°12.739 2°49.817 -999 0.053353 0.332025 1.713247
2006-02-24 08:11:58 51°12.731 2°49.794 -999 0.053353 0.332018 1.713247
2006-02-24 08:12:03 51°12.722 2°49.77 -999 0.053353 0.332018 1.679537
2006-02-24 08:12:08 51°12.715 2°49.746 -999 0.053353 0.332018 1.713247
2006-02-24 08:12:13 51°12.707 2°49.722 -999 0.053353 0.332018 1.713247
2006-02-24 08:12:18 51°12.699 2°49.698 -999 0.053353 0.332011 1.713247
2006-02-24 08:12:23 51°12.692 2°49.674 -999 0.053353 0.332018 1.713247
2006-02-24 08:12:28 51°12.683 2°49.65 -999 0.053353 0.332004 1.713247
2006-02-24 08:12:33 51°12.677 2°49.625 -999 0.053353 0.332018 1.713247
2006-02-24 08:12:38 51°12.668 2°49.601 -999 0.053353 0.332011 1.713247
2006-02-24 08:12:43 51°12.661 2°49.576 -999 0.053353 0.332011 1.713247
2006-02-24 08:12:48 51°12.653 2°49.552 -999 0.053353 0.332004 1.713247
2006-02-24 08:12:53 51°12.646 2°49.527 -999 0.053353 0.332011 1.713247
2006-02-24 08:12:58 51°12.639 2°49.502 -999 0.053353 0.332011 1.713247
2006-02-24 08:13:03 51°12.632 2°49.478 -999 0.053353 0.332011 1.713247
2006-02-24 08:13:08 51°12.624 2°49.454 -999 0.053353 0.332004 1.713247
2006-02-24 08:13:14 51°12.614 2°49.425 -999 0.053353 0.332004 1.713247
2006-02-24 08:13:18 51°12.608 2°49.407 -999 0.053353 0.332004 1.713247
2006-02-24 08:13:23 51°12.6 2°49.382 -999 0.053353 0.332004 1.713247
2006-02-24 08:13:28 51°12.592 2°49.359 -999 0.053353 0.332004 1.713247
2006-02-24 08:13:33 51°12.582 2°49.336 -999 0.053353 0.331997 1.713247
2006-02-24 08:13:38 51°12.575 2°49.312 -999 0.053353 0.331997 1.713247
2006-02-24 08:13:43 51°12.566 2°49.289 -999 0.053353 0.331997 1.713247
2006-02-24 08:13:48 51°12.558 2°49.265 -999 0.053353 0.331997 1.713247
2006-02-24 08:13:53 51°12.549 2°49.243 -999 0.053353 0.331997 1.713247
2006-02-24 08:13:58 51°12.542 2°49.219 -999 0.053353 0.332004 1.713247
2006-02-24 08:14:03 51°12.532 2°49.196 -999 0.053353 0.33199 1.713247
2006-02-24 08:14:08 51°12.525 2°49.172 -999 0.053353 0.332004 1.713247
2006-02-24 08:14:13 51°12.516 2°49.15 -999 0.053353 0.332004 1.713247
2006-02-24 08:14:18 51°12.508 2°49.126 -999 0.053353 0.331997 1.713247
2006-02-24 08:14:23 51°12.5 2°49.101 -999 0.053353 0.331983 1.713247
2006-02-24 08:14:28 51°12.492 2°49.078 -999 0.053353 0.331997 1.713247
2006-02-24 08:14:33 51°12.484 2°49.054 -999 0.053353 0.33199 1.713247
2006-02-24 08:14:38 51°12.477 2°49.03 -999 0.053353 0.331997 1.713247
2006-02-24 08:14:43 51°12.469 2°49.007 -999 0.053353 0.331997 1.713247
2006-02-24 08:14:48 51°12.462 2°48.983 -999 0.053353 0.331983 1.713247
2006-02-24 08:14:53 51°12.453 2°48.96 -999 0.053353 0.33199 1.679537
2006-02-24 08:14:58 51°12.444 2°48.936 -999 0.053353 0.331983 1.679537
2006-02-24 08:15:03 51°12.438 2°48.912 -999 0.053353 0.33199 1.713247
2006-02-24 08:15:08 51°12.429 2°48.889 -999 0.053353 0.331983 1.713247
2006-02-24 08:15:12 51°12.424 2°48.869 -999 0.053353 0.331983 1.713247
2006-02-24 08:15:18 51°12.414 2°48.84 -999 0.053353 0.331977 1.713247
2006-02-24 08:15:23 51°12.407 2°48.816 -999 0.053353 0.33199 1.713247
2006-02-24 08:15:28 51°12.399 2°48.792 -999 0.053353 0.331983 1.713247
2006-02-24 08:15:33 51°12.391 2°48.768 -999 0.053353 0.331983 1.713247
2006-02-24 08:15:38 51°12.384 2°48.744 -999 0.053353 0.33199 1.713247
2006-02-24 08:15:43 51°12.375 2°48.72 -999 0.053353 0.33199 1.713247
2006-02-24 08:15:48 51°12.368 2°48.696 -999 0.053353 0.331983 1.746956
2006-02-24 08:15:53 51°12.36 2°48.672 -999 0.053353 0.33199 1.713247
2006-02-24 08:15:58 51°12.352 2°48.647 -999 0.053353 0.331983 1.713247
2006-02-24 08:16:03 51°12.345 2°48.623 -999 0.053353 0.33199 1.713247
2006-02-24 08:16:08 51°12.337 2°48.599 -999 0.053353 0.33199 1.713247
2006-02-24 08:16:13 51°12.329 2°48.575 -999 0.053353 0.33199 1.713247
2006-02-24 08:16:18 51°12.321 2°48.552 -999 0.053353 0.331977 1.713247
2006-02-24 08:16:23 51°12.314 2°48.528 -999 0.053456 0.332652 1.713247
2006-02-24 08:16:28 51°12.305 2°48.505 -999 0.053353 0.331977 1.713247
2006-02-24 08:16:33 51°12.297 2°48.482 -999 0.053353 0.331977 1.713247
2006-02-24 08:16:38 51°12.289 2°48.458 -999 0.053456 0.332638 1.713247
2006-02-24 08:16:43 51°12.281 2°48.435 -999 0.053456 0.332638 1.713247
2006-02-24 08:16:48 51°12.273 2°48.411 -999 0.053353 0.331983 1.713247
2006-02-24 08:16:53 51°12.266 2°48.387 -999 0.053353 0.331977 1.713247
2006-02-24 08:16:58 51°12.258 2°48.364 -999 0.053456 0.332631 1.713247
2006-02-24 08:17:03 51°12.251 2°48.339 -999 0.053353 0.331977 1.713247
2006-02-24 08:17:08 51°12.242 2°48.316 -999 0.053353 0.33197 1.713247
2006-02-24 08:17:13 51°12.234 2°48.292 -999 0.053353 0.33197 1.713247
2006-02-24 08:17:18 51°12.226 2°48.269 -999 0.053353 0.33197 1.713247
2006-02-24 08:17:23 51°12.218 2°48.245 -999 0.053353 0.331963 1.713247
2006-02-24 08:17:28 51°12.21 2°48.221 -999 0.053353 0.331963 1.713247
2006-02-24 08:17:34 51°12.2 2°48.192 -999 0.053353 0.331963 1.713247
2006-02-24 08:17:38 51°12.194 2°48.172 -999 0.053353 0.331956 1.713247
2006-02-24 08:17:43 51°12.188 2°48.148 -999 0.053353 0.331956 1.713247
2006-02-24 08:17:48 51°12.179 2°48.124 -999 0.053456 0.332631 1.713247
2006-02-24 08:17:53 51°12.172 2°48.099 -999 0.053353 0.331956 1.713247
2006-02-24 08:17:58 51°12.164 2°48.076 -999 0.053353 0.33197 1.713247
2006-02-24 08:18:03 51°12.156 2°48.051 -999 0.053353 0.331963 1.713247
2006-02-24 08:18:08 51°12.15 2°48.027 -999 0.053353 0.33197 1.713247
2006-02-24 08:18:13 51°12.141 2°48.004 -999 0.053353 0.33197 1.713247
2006-02-24 08:18:18 51°12.134 2°47.979 -999 0.053353 0.331963 1.713247
2006-02-24 08:18:23 51°12.127 2°47.954 -999 0.053456 0.332631 1.713247
2006-02-24 08:18:28 51°12.119 2°47.931 -999 0.053456 0.332624 1.713247
2006-02-24 08:18:33 51°12.112 2°47.907 -999 0.053353 0.33197 1.713247
2006-02-24 08:18:38 51°12.103 2°47.883 -999 0.053456 0.332624 1.713247
2006-02-24 08:18:43 51°12.096 2°47.859 -999 0.053456 0.332624 1.713247
2006-02-24 08:18:48 51°12.087 2°47.836 -999 0.053353 0.331963 1.713247
2006-02-24 08:18:53 51°12.08 2°47.811 -999 0.053353 0.331963 1.713247
2006-02-24 08:18:58 51°12.071 2°47.788 -999 0.053456 0.332617 1.713247
2006-02-24 08:19:03 51°12.064 2°47.764 -999 0.053456 0.332617 1.713247
2006-02-24 08:19:08 51°12.055 2°47.741 -999 0.053353 0.331956 1.746956
2006-02-24 08:19:13 51°12.047 2°47.717 -999 0.053353 0.331956 1.746956
2006-02-24 08:19:18 51°12.039 2°47.692 -999 0.053456 0.332617 1.713247
2006-02-24 08:19:23 51°12.031 2°47.668 -999 0.053456 0.332603 1.746956
2006-02-24 08:19:28 51°12.024 2°47.643 -999 0.053353 0.331956 1.713247
2006-02-24 08:19:33 51°12.016 2°47.619 -999 0.053456 0.33261 1.746956
2006-02-24 08:19:38 51°12.009 2°47.594 -999 0.053353 0.331956 1.713247
2006-02-24 08:19:43 51°12.002 2°47.57 -999 0.053353 0.331956 1.713247
2006-02-24 08:19:48 51°11.994 2°47.546 -999 0.053353 0.331956 1.713247
2006-02-24 08:19:53 51°11.986 2°47.522 -999 0.053353 0.331956 1.713247
2006-02-24 08:19:58 51°11.979 2°47.498 -999 0.053353 0.331949 1.713247
2006-02-24 08:20:03 51°11.971 2°47.474 -999 0.053456 0.33261 1.713247
2006-02-24 08:20:08 51°11.963 2°47.45 -999 0.053353 0.331942 1.713247
2006-02-24 08:20:13 51°11.956 2°47.425 -999 0.053353 0.331942 1.713247
2006-02-24 08:20:18 51°11.948 2°47.401 -999 0.053456 0.33261 1.713247
2006-02-24 08:20:23 51°11.94 2°47.377 -999 0.053353 0.331942 1.713247
2006-02-24 08:20:28 51°11.932 2°47.352 -999 0.053353 0.331942 1.713247
2006-02-24 08:20:33 51°11.925 2°47.329 -999 0.053456 0.33261 1.713247
2006-02-24 08:20:38 51°11.916 2°47.306 -999 0.053456 0.332603 1.713247
2006-02-24 08:20:43 51°11.908 2°47.281 -999 0.053456 0.332603 1.713247
2006-02-24 08:20:48 51°11.9 2°47.257 -999 0.053353 0.331935 1.713247
2006-02-24 08:20:53 51°11.893 2°47.233 -999 0.053456 0.332603 1.713247
2006-02-24 08:20:58 51°11.884 2°47.209 -999 0.053353 0.331935 1.713247
2006-02-24 08:21:03 51°11.877 2°47.184 -999 0.053456 0.332603 1.713247
2006-02-24 08:21:08 51°11.869 2°47.161 -999 0.053456 0.332603 1.713247
2006-02-24 08:21:13 51°11.862 2°47.136 -999 0.053456 0.332603 1.713247
2006-02-24 08:21:18 51°11.853 2°47.112 -999 0.053456 0.332603 1.713247
2006-02-24 08:21:23 51°11.846 2°47.088 -999 0.053456 0.332596 1.713247
2006-02-24 08:21:28 51°11.838 2°47.063 -999 0.053456 0.332603 1.713247
2006-02-24 08:21:33 51°11.831 2°47.039 -999 0.053456 0.332596 1.713247
2006-02-24 08:21:38 51°11.823 2°47.014 -999 0.053456 0.332603 1.713247
2006-02-24 08:21:43 51°11.815 2°46.991 -999 0.053456 0.332603 1.713247
2006-02-24 08:21:48 51°11.808 2°46.966 -999 0.053456 0.332596 1.713247
2006-02-24 08:21:53 51°11.8 2°46.943 -999 0.053456 0.332603 1.713247
2006-02-24 08:21:58 51°11.792 2°46.919 -999 0.053353 0.331935 1.746956
2006-02-24 08:22:03 51°11.784 2°46.895 -999 0.053456 0.332596 1.746956
2006-02-24 08:22:08 51°11.776 2°46.871 -999 0.053456 0.332596 1.746956
2006-02-24 08:22:13 51°11.768 2°46.847 -999 0.053456 0.332596 1.746956
2006-02-24 08:22:18 51°11.76 2°46.823 -999 0.053456 0.332596 1.713247
2006-02-24 08:22:23 51°11.753 2°46.799 -999 0.053456 0.332596 1.713247
2006-02-24 08:22:28 51°11.746 2°46.774 -999 0.053456 0.332603 1.746956
2006-02-24 08:22:33 51°11.737 2°46.75 -999 0.053456 0.332596 1.713247
2006-02-24 08:22:38 51°11.729 2°46.727 -999 0.053456 0.332596 1.713247
2006-02-24 08:22:43 51°11.721 2°46.702 -999 0.053456 0.332596 1.713247
2006-02-24 08:22:48 51°11.714 2°46.678 -999 0.053456 0.332596 1.713247
2006-02-24 08:22:54 51°11.704 2°46.649 -999 0.053456 0.332596 1.713247
2006-02-24 08:22:58 51°11.699 2°46.629 -999 0.053353 0.331935 1.713247
2006-02-24 08:23:03 51°11.691 2°46.605 -999 0.053456 0.332596 1.713247
2006-02-24 08:23:08 51°11.683 2°46.581 -999 0.053456 0.332589 1.713247
2006-02-24 08:23:13 51°11.676 2°46.557 -999 0.053456 0.332589 1.713247
2006-02-24 08:23:18 51°11.668 2°46.533 -999 0.053456 0.332603 1.713247
2006-02-24 08:23:23 51°11.66 2°46.509 -999 0.053456 0.332596 1.713247
2006-02-24 08:23:28 51°11.652 2°46.485 -999 0.053456 0.332603 1.746956
2006-02-24 08:23:34 51°11.643 2°46.456 -999 0.053456 0.33261 1.746956
2006-02-24 08:23:38 51°11.637 2°46.437 -999 0.053456 0.332603 1.746956
2006-02-24 08:23:43 51°11.629 2°46.413 -999 0.053456 0.332603 1.746956
2006-02-24 08:23:48 51°11.621 2°46.39 -999 0.053353 0.331949 1.713247
2006-02-24 08:23:53 51°11.613 2°46.366 -999 0.053353 0.331949 1.713247
2006-02-24 08:23:58 51°11.604 2°46.342 -999 0.053456 0.332603 1.713247
2006-02-24 08:24:03 51°11.597 2°46.317 -999 0.053456 0.33261 1.713247
2006-02-24 08:24:08 51°11.588 2°46.293 -999 0.053456 0.332603 1.713247
2006-02-24 08:24:13 51°11.581 2°46.267 -999 0.053456 0.332603 1.713247
2006-02-24 08:24:18 51°11.574 2°46.243 -999 0.053456 0.33261 1.713247
2006-02-24 08:24:23 51°11.566 2°46.218 -999 0.053456 0.33261 1.713247
2006-02-24 08:24:28 51°11.559 2°46.193 -999 0.053456 0.33261 1.713247
2006-02-24 08:24:33 51°11.552 2°46.169 -999 0.053353 0.331942 1.713247
2006-02-24 08:24:38 51°11.545 2°46.144 -999 0.053456 0.33261 1.713247
2006-02-24 08:24:43 51°11.536 2°46.12 -999 0.053456 0.33261 1.713247
2006-02-24 08:24:48 51°11.529 2°46.095 -999 0.053456 0.332603 1.746956
2006-02-24 08:24:53 51°11.52 2°46.071 -999 0.053456 0.332603 1.746956
2006-02-24 08:24:58 51°11.514 2°46.046 -999 0.053353 0.331949 1.746956
2006-02-24 08:25:03 51°11.505 2°46.023 -999 0.053456 0.332596 1.713247
2006-02-24 08:25:08 51°11.499 2°45.996 -999 0.053353 0.331956 1.746956
2006-02-24 08:25:13 51°11.49 2°45.973 -999 0.053353 0.331956 1.746956
2006-02-24 08:25:18 51°11.484 2°45.947 -999 0.053456 0.33261 1.713247
2006-02-24 08:25:23 51°11.476 2°45.923 -999 0.053456 0.332617 1.746956
2006-02-24 08:25:28 51°11.469 2°45.898 -999 0.053456 0.33261 1.746956
2006-02-24 08:25:33 51°11.462 2°45.873 -999 0.053456 0.332624 1.713247
2006-02-24 08:25:38 51°11.453 2°45.849 -999 0.053353 0.331949 1.713247
2006-02-24 08:25:43 51°11.446 2°45.824 -999 0.053353 0.331949 1.713247
2006-02-24 08:25:48 51°11.438 2°45.8 -999 0.053456 0.332617 1.713247
2006-02-24 08:25:53 51°11.431 2°45.775 -999 0.053456 0.33261 1.713247
2006-02-24 08:25:58 51°11.423 2°45.751 -999 0.053456 0.33261 1.746956
2006-02-24 08:26:03 51°11.415 2°45.726 -999 0.053353 0.331949 1.713247
2006-02-24 08:26:08 51°11.407 2°45.701 -999 0.053456 0.332596 1.713247
2006-02-24 08:26:13 51°11.4 2°45.676 -999 0.053456 0.332596 1.713247
2006-02-24 08:26:18 51°11.391 2°45.653 -999 0.053456 0.33261 1.713247
2006-02-24 08:26:23 51°11.385 2°45.627 -999 0.053456 0.332603 1.713247
2006-02-24 08:26:28 51°11.377 2°45.603 -999 0.053353 0.331942 1.746956
2006-02-24 08:26:33 51°11.37 2°45.578 -999 0.053456 0.332603 1.713247
2006-02-24 08:26:38 51°11.361 2°45.554 -999 0.053353 0.331949 1.713247
2006-02-24 08:26:43 51°11.353 2°45.53 -999 0.053353 0.331949 1.713247
2006-02-24 08:26:48 51°11.346 2°45.505 -999 0.053456 0.332596 1.713247
2006-02-24 08:26:52 51°11.34 2°45.485 -999 0.053456 0.332617 1.713247
2006-02-24 08:26:58 51°11.331 2°45.456 -999 0.053456 0.33261 1.713247
2006-02-24 08:27:03 51°11.322 2°45.432 -999 0.053353 0.331949 1.713247
2006-02-24 08:27:08 51°11.315 2°45.408 -999 0.053456 0.332617 1.713247
2006-02-24 08:27:13 51°11.306 2°45.384 -999 0.053456 0.332617 1.713247
2006-02-24 08:27:18 51°11.299 2°45.359 -999 0.053456 0.33261 1.713247
2006-02-24 08:27:23 51°11.291 2°45.335 -999 0.053456 0.332617 1.713247
2006-02-24 08:27:28 51°11.284 2°45.31 -999 0.053456 0.332617 1.713247
2006-02-24 08:27:33 51°11.276 2°45.286 -999 0.053353 0.331949 1.746956
2006-02-24 08:27:38 51°11.269 2°45.262 -999 0.053456 0.33261 1.746956
2006-02-24 08:27:43 51°11.261 2°45.237 -999 0.053456 0.33261 1.746956
2006-02-24 08:27:48 51°11.253 2°45.213 -999 0.053456 0.332617 1.746956
2006-02-24 08:27:53 51°11.245 2°45.189 -999 0.053456 0.33261 1.746956
2006-02-24 08:27:58 51°11.238 2°45.165 -999 0.053456 0.332617 1.713247
2006-02-24 08:28:03 51°11.23 2°45.14 -999 0.053456 0.33261 1.746956
2006-02-24 08:28:08 51°11.223 2°45.116 -999 0.053456 0.33261 1.713247
2006-02-24 08:28:13 51°11.214 2°45.092 -999 0.053456 0.33261 1.713247
2006-02-24 08:28:18 51°11.207 2°45.068 -999 0.053456 0.33261 1.713247
2006-02-24 08:28:23 51°11.199 2°45.044 -999 0.053456 0.33261 1.713247
2006-02-24 08:28:28 51°11.191 2°45.02 -999 0.053456 0.332603 1.713247
2006-02-24 08:28:33 51°11.184 2°44.994 -999 0.053456 0.33261 1.713247
2006-02-24 08:28:38 51°11.176 2°44.97 -999 0.053456 0.332603 1.713247
2006-02-24 08:28:43 51°11.17 2°44.945 -999 0.053456 0.332603 1.713247
2006-02-24 08:28:48 51°11.162 2°44.92 -999 0.053456 0.332603 1.713247
2006-02-24 08:28:53 51°11.156 2°44.894 -999 0.053456 0.332596 1.713247
2006-02-24 08:28:58 51°11.15 2°44.869 -999 0.053456 0.33261 1.713247
2006-02-24 08:29:04 51°11.141 2°44.838 -999 0.053456 0.332603 1.713247
2006-02-24 08:29:08 51°11.137 2°44.817 -999 0.053456 0.332603 1.713247
2006-02-24 08:29:13 51°11.131 2°44.792 -999 0.053456 0.332603 1.713247
2006-02-24 08:29:18 51°11.125 2°44.766 -999 0.053456 0.33261 1.713247
2006-02-24 08:29:23 51°11.12 2°44.74 -999 0.053456 0.332603 1.713247
2006-02-24 08:29:28 51°11.111 2°44.716 -999 0.053456 0.332596 1.713247
2006-02-24 08:29:33 51°11.107 2°44.689 -999 0.053456 0.332617 1.713247
2006-02-24 08:29:38 51°11.099 2°44.665 -999 0.053456 0.33261 1.713247
2006-02-24 08:29:43 51°11.093 2°44.639 -999 0.053456 0.33261 1.713247
2006-02-24 08:29:48 51°11.087 2°44.613 -999 0.053456 0.33261 1.746956
2006-02-24 08:29:53 51°11.08 2°44.588 -999 0.053456 0.33261 1.746956
2006-02-24 08:29:58 51°11.075 2°44.562 -999 0.053456 0.332624 1.746956
2006-02-24 08:30:03 51°11.068 2°44.538 -999 0.053456 0.332624 1.713247
2006-02-24 08:30:08 51°11.061 2°44.513 -999 0.053456 0.332617 1.713247
2006-02-24 08:30:13 51°11.056 2°44.486 -999 0.053456 0.332617 1.713247
2006-02-24 08:30:18 51°11.05 2°44.461 -999 0.053456 0.332624 1.746956
2006-02-24 08:30:23 51°11.041 2°44.437 -999 0.053456 0.332624 1.746956
2006-02-24 08:30:28 51°11.037 2°44.41 -999 0.053456 0.332638 1.746956
2006-02-24 08:30:33 51°11.029 2°44.386 -999 0.053456 0.332631 1.746956
2006-02-24 08:30:38 51°11.023 2°44.36 -999 0.053456 0.332624 1.746956
2006-02-24 08:30:43 51°11.018 2°44.334 -999 0.053456 0.332624 1.746956
2006-02-24 08:30:48 51°11.01 2°44.309 -999 0.053456 0.332631 1.746956
2006-02-24 08:30:53 51°11.004 2°44.283 -999 0.053456 0.332617 1.746956
2006-02-24 08:30:58 51°10.997 2°44.257 -999 0.053456 0.332617 1.713247
2006-02-24 08:31:03 51°10.991 2°44.231 -999 0.053456 0.33261 1.713247
2006-02-24 08:31:08 51°10.985 2°44.205 -999 0.053456 0.33261 1.746956
2006-02-24 08:31:13 51°10.979 2°44.179 -999 0.053456 0.33261 1.746956
2006-02-24 08:31:18 51°10.973 2°44.154 -999 0.053456 0.332596 1.713247
2006-02-24 08:31:23 51°10.965 2°44.129 -999 0.053456 0.332603 1.746956
2006-02-24 08:31:28 51°10.959 2°44.103 -999 0.053456 0.332596 1.746956
2006-02-24 08:31:32 51°10.953 2°44.083 -999 0.053456 0.332589 1.713247
2006-02-24 08:31:38 51°10.947 2°44.052 -999 0.053456 0.33261 1.713247
2006-02-24 08:31:43 51°10.938 2°44.028 -999 0.053456 0.33261 1.713247
2006-02-24 08:31:48 51°10.933 2°44.002 -999 0.053456 0.332589 1.746956
2006-02-24 08:31:53 51°10.924 2°43.978 -999 0.053456 0.332596 1.713247
2006-02-24 08:31:58 51°10.919 2°43.952 -999 0.053456 0.332617 1.713247
2006-02-24 08:32:03 51°10.909 2°43.929 -999 0.053456 0.332603 1.746956
2006-02-24 08:32:08 51°10.905 2°43.902 -999 0.053456 0.332624 1.746956
2006-02-24 08:32:13 51°10.897 2°43.878 -999 0.053456 0.332624 1.746956
2006-02-24 08:32:18 51°10.892 2°43.853 -999 0.053456 0.332624 1.713247
2006-02-24 08:32:23 51°10.884 2°43.828 -999 0.053456 0.332617 1.746956
2006-02-24 08:32:28 51°10.878 2°43.803 -999 0.053456 0.332624 1.746956
2006-02-24 08:32:33 51°10.872 2°43.778 -999 0.053456 0.332624 1.713247
2006-02-24 08:32:38 51°10.865 2°43.753 -999 0.053456 0.332631 1.713247
2006-02-24 08:32:43 51°10.858 2°43.729 -999 0.053456 0.332631 1.713247
2006-02-24 08:32:48 51°10.851 2°43.703 -999 0.053456 0.33261 1.713247
2006-02-24 08:32:53 51°10.844 2°43.678 -999 0.053456 0.332624 1.746956
2006-02-24 08:32:58 51°10.837 2°43.653 -999 0.053456 0.332603 1.746956
2006-02-24 08:33:03 51°10.831 2°43.628 -999 0.053456 0.332617 1.746956
2006-02-24 08:33:08 51°10.824 2°43.603 -999 0.053456 0.332603 1.746956
2006-02-24 08:33:13 51°10.818 2°43.577 -999 0.053456 0.332603 1.746956
2006-02-24 08:33:18 51°10.811 2°43.552 -999 0.053456 0.33261 1.746956
2006-02-24 08:33:24 51°10.804 2°43.521 -999 0.053456 0.332596 1.713247
2006-02-24 08:33:28 51°10.799 2°43.501 -999 0.053456 0.332603 1.713247
2006-02-24 08:33:33 51°10.792 2°43.476 -999 0.053456 0.332596 1.713247
2006-02-24 08:33:38 51°10.787 2°43.451 -999 0.053456 0.332596 1.713247
2006-02-24 08:33:43 51°10.779 2°43.427 -999 0.053456 0.332596 1.713247
2006-02-24 08:33:48 51°10.773 2°43.402 -999 0.053456 0.332582 1.746956
2006-02-24 08:33:53 51°10.765 2°43.379 -999 0.053456 0.332596 1.746956
2006-02-24 08:33:58 51°10.758 2°43.353 -999 0.053456 0.332582 1.713247
2006-02-24 08:34:03 51°10.751 2°43.33 -999 0.053456 0.332589 1.746956
2006-02-24 08:34:08 51°10.743 2°43.305 -999 0.053456 0.332582 1.713247
2006-02-24 08:34:13 51°10.737 2°43.281 -999 0.053456 0.332582 1.713247
2006-02-24 08:34:18 51°10.729 2°43.257 -999 0.053456 0.332575 1.746956
2006-02-24 08:34:23 51°10.724 2°43.231 -999 0.053456 0.332582 1.713247
2006-02-24 08:34:28 51°10.716 2°43.207 -999 0.053456 0.332575 1.713247
2006-02-24 08:34:34 51°10.708 2°43.177 -999 0.053456 0.332575 1.746956
2006-02-24 08:34:38 51°10.702 2°43.156 -999 0.053456 0.332575 1.713247
2006-02-24 08:34:43 51°10.696 2°43.13 -999 0.053456 0.332575 1.713247
2006-02-24 08:34:48 51°10.689 2°43.105 -999 0.053456 0.332575 1.713247
2006-02-24 08:34:53 51°10.683 2°43.08 -999 0.053456 0.332582 1.713247
2006-02-24 08:34:58 51°10.676 2°43.054 -999 0.053456 0.332568 1.713247
2006-02-24 08:35:03 51°10.67 2°43.028 -999 0.053456 0.332575 1.746956
2006-02-24 08:35:08 51°10.663 2°43.002 -999 0.053456 0.332568 1.746956
2006-02-24 08:35:13 51°10.657 2°42.976 -999 0.053456 0.332568 1.746956
2006-02-24 08:35:18 51°10.649 2°42.952 -999 0.053353 0.331921 1.713247
2006-02-24 08:35:23 51°10.643 2°42.926 -999 0.053456 0.332568 1.746956
2006-02-24 08:35:28 51°10.636 2°42.901 -999 0.053456 0.332575 1.713247
2006-02-24 08:35:33 51°10.629 2°42.876 -999 0.053456 0.332568 1.746956
2006-02-24 08:35:38 51°10.623 2°42.851 -999 0.053456 0.332568 1.746956
2006-02-24 08:35:43 51°10.617 2°42.825 -999 0.053456 0.332568 1.746956
2006-02-24 08:35:48 51°10.61 2°42.8 -999 0.053456 0.332568 1.746956
2006-02-24 08:35:53 51°10.604 2°42.774 -999 0.053456 0.332568 1.746956
2006-02-24 08:35:58 51°10.599 2°42.749 -999 0.053456 0.332568 1.713247
2006-02-24 08:36:03 51°10.591 2°42.724 -999 0.053456 0.332561 1.746956
2006-02-24 08:36:08 51°10.586 2°42.699 -999 0.053456 0.332575 1.713247
2006-02-24 08:36:14 51°10.577 2°42.67 -999 0.053456 0.332575 1.713247
2006-02-24 08:36:18 51°10.573 2°42.649 -999 0.053456 0.332561 1.713247
2006-02-24 08:36:23 51°10.565 2°42.625 -999 0.053456 0.332568 1.713247
2006-02-24 08:36:28 51°10.56 2°42.599 -999 0.053456 0.332568 1.713247
2006-02-24 08:36:33 51°10.553 2°42.574 -999 0.053456 0.332568 1.713247
2006-02-24 08:36:38 51°10.547 2°42.549 -999 0.053456 0.332568 1.713247
2006-02-24 08:36:43 51°10.541 2°42.523 -999 0.053456 0.332568 1.713247
2006-02-24 08:36:48 51°10.535 2°42.498 -999 0.053456 0.332575 1.713247
2006-02-24 08:36:53 51°10.528 2°42.474 -999 0.053456 0.332561 1.713247
2006-02-24 08:36:58 51°10.522 2°42.449 -999 0.053456 0.332575 1.713247
2006-02-24 08:37:03 51°10.514 2°42.425 -999 0.053456 0.332561 1.746956
2006-02-24 08:37:08 51°10.508 2°42.399 -999 0.053456 0.332568 1.713247
2006-02-24 08:37:14 51°10.499 2°42.37 -999 0.053456 0.332568 1.713247
2006-02-24 08:37:18 51°10.494 2°42.35 -999 0.053456 0.332568 1.713247
2006-02-24 08:37:23 51°10.486 2°42.325 -999 0.053456 0.332561 1.746956
2006-02-24 08:37:28 51°10.48 2°42.299 -999 0.053456 0.332568 1.713247
2006-02-24 08:37:33 51°10.474 2°42.275 -999 0.053456 0.332575 1.713247
2006-02-24 08:37:38 51°10.467 2°42.25 -999 0.053456 0.332561 1.713247
2006-02-24 08:37:43 51°10.461 2°42.224 -999 0.053456 0.332561 1.713247
2006-02-24 08:37:48 51°10.454 2°42.199 -999 0.053456 0.332568 1.713247
2006-02-24 08:37:53 51°10.446 2°42.174 -999 0.053456 0.332561 1.746956
2006-02-24 08:37:58 51°10.44 2°42.149 -999 0.053456 0.332568 1.746956
2006-02-24 08:38:03 51°10.433 2°42.125 -999 0.053456 0.332561 1.746956
2006-02-24 08:38:08 51°10.427 2°42.099 -999 0.053456 0.332561 1.746956
2006-02-24 08:38:13 51°10.42 2°42.074 -999 0.053456 0.332561 1.746956
2006-02-24 08:38:18 51°10.414 2°42.049 -999 0.053456 0.332561 1.746956
2006-02-24 08:38:23 51°10.407 2°42.024 -999 0.053456 0.332554 1.746956
2006-02-24 08:38:28 51°10.402 2°41.999 -999 0.053456 0.332554 1.746956
2006-02-24 08:38:33 51°10.396 2°41.974 -999 0.053456 0.332561 1.746956
2006-02-24 08:38:38 51°10.389 2°41.949 -999 0.053456 0.332554 1.746956
2006-02-24 08:38:43 51°10.383 2°41.924 -999 0.053456 0.332554 1.746956
2006-02-24 08:38:48 51°10.376 2°41.9 -999 0.053456 0.332554 1.746956
2006-02-24 08:38:53 51°10.369 2°41.876 -999 0.053456 0.332554 1.746956
2006-02-24 08:38:58 51°10.361 2°41.851 -999 0.053456 0.332547 1.746956
2006-02-24 08:39:03 51°10.355 2°41.826 -999 0.053456 0.332547 1.746956
2006-02-24 08:39:08 51°10.348 2°41.802 -999 0.053456 0.33254 1.713247
2006-02-24 08:39:14 51°10.341 2°41.771 -999 0.053456 0.33254 1.713247
2006-02-24 08:39:18 51°10.335 2°41.752 -999 0.053456 0.332554 1.746956
2006-02-24 08:39:24 51°10.329 2°41.721 -999 0.053456 0.33254 1.746956
2006-02-24 08:39:28 51°10.323 2°41.702 -999 0.053456 0.332554 1.746956
2006-02-24 08:39:33 51°10.317 2°41.677 -999 0.053456 0.332547 1.746956
2006-02-24 08:39:38 51°10.311 2°41.652 -999 0.053456 0.332547 1.746956
2006-02-24 08:39:43 51°10.304 2°41.628 -999 0.053456 0.332547 1.746956
2006-02-24 08:39:48 51°10.298 2°41.604 -999 0.053456 0.332554 1.746956
2006-02-24 08:39:53 51°10.29 2°41.58 -999 0.053456 0.33254 1.746956
2006-02-24 08:39:58 51°10.283 2°41.556 -999 0.053456 0.332547 1.746956
2006-02-24 08:40:03 51°10.275 2°41.532 -999 0.053456 0.33254 1.746956
2006-02-24 08:40:08 51°10.268 2°41.508 -999 0.053456 0.33254 1.713247
2006-02-24 08:40:13 51°10.26 2°41.484 -999 0.053456 0.33254 1.713247
2006-02-24 08:40:18 51°10.254 2°41.458 -999 0.053456 0.332533 1.746956
2006-02-24 08:40:23 51°10.248 2°41.433 -999 0.053456 0.332533 1.746956
2006-02-24 08:40:28 51°10.241 2°41.408 -999 0.053456 0.332533 1.713247
2006-02-24 08:40:34 51°10.235 2°41.377 -999 0.053456 0.332533 1.746956
2006-02-24 08:40:38 51°10.231 2°41.357 -999 0.053456 0.332533 1.746956
2006-02-24 08:40:43 51°10.224 2°41.332 -999 0.053456 0.332533 1.746956
2006-02-24 08:40:48 51°10.218 2°41.307 -999 0.053456 0.33254 1.746956
2006-02-24 08:40:53 51°10.211 2°41.283 -999 0.053456 0.332519 1.746956
2006-02-24 08:40:58 51°10.206 2°41.258 -999 0.053456 0.33254 1.713247
2006-02-24 08:41:03 51°10.199 2°41.234 -999 0.053456 0.332533 1.746956
2006-02-24 08:41:08 51°10.193 2°41.209 -999 0.053456 0.332533 1.746956
2006-02-24 08:41:13 51°10.185 2°41.186 -999 0.053456 0.332533 1.746956
2006-02-24 08:41:18 51°10.178 2°41.162 -999 0.053456 0.332533 1.746956
2006-02-24 08:41:23 51°10.171 2°41.139 -999 0.053456 0.33254 1.746956
2006-02-24 08:41:28 51°10.164 2°41.115 -999 0.053456 0.332533 1.746956
2006-02-24 08:41:33 51°10.156 2°41.091 -999 0.053456 0.332526 1.713247
2006-02-24 08:41:38 51°10.149 2°41.067 -999 0.053456 0.332526 1.713247
2006-02-24 08:41:43 51°10.142 2°41.042 -999 0.053456 0.332526 1.713247
2006-02-24 08:41:48 51°10.136 2°41.017 -999 0.053456 0.332533 1.746956
2006-02-24 08:41:53 51°10.13 2°40.993 -999 0.053456 0.332519 1.713247
2006-02-24 08:41:58 51°10.123 2°40.968 -999 0.053456 0.332533 1.713247
2006-02-24 08:42:03 51°10.117 2°40.943 -999 0.053456 0.332533 1.746956
2006-02-24 08:42:08 51°10.11 2°40.919 -999 0.053456 0.332526 1.746956
2006-02-24 08:42:13 51°10.104 2°40.894 -999 0.053456 0.332526 1.746956
2006-02-24 08:42:18 51°10.098 2°40.869 -999 0.053456 0.332533 1.746956
2006-02-24 08:42:23 51°10.091 2°40.845 -999 0.053456 0.332526 1.746956
2006-02-24 08:42:28 51°10.086 2°40.819 -999 0.053456 0.33254 1.746956
2006-02-24 08:42:33 51°10.079 2°40.794 -999 0.053456 0.332526 1.746956
2006-02-24 08:42:38 51°10.074 2°40.768 -999 0.053456 0.33254 1.746956
2006-02-24 08:42:43 51°10.067 2°40.743 -999 0.053456 0.33254 1.746956
2006-02-24 08:42:48 51°10.063 2°40.717 -999 0.053456 0.332526 1.746956
2006-02-24 08:42:53 51°10.057 2°40.691 -999 0.053456 0.332533 1.746956
2006-02-24 08:42:58 51°10.052 2°40.665 -999 0.053456 0.332533 1.746956
2006-02-24 08:43:03 51°10.046 2°40.639 -999 0.053456 0.332526 1.746956
2006-02-24 08:43:08 51°10.041 2°40.613 -999 0.053456 0.332533 1.746956
2006-02-24 08:43:13 51°10.036 2°40.587 -999 0.053456 0.332533 1.746956
2006-02-24 08:43:18 51°10.031 2°40.561 -999 0.053456 0.332526 1.746956
2006-02-24 08:43:23 51°10.026 2°40.535 -999 0.053456 0.332533 1.746956
2006-02-24 08:43:28 51°10.021 2°40.509 -999 0.053456 0.332533 1.713247
2006-02-24 08:43:33 51°10.015 2°40.484 -999 0.053456 0.332533 1.713247
2006-02-24 08:43:38 51°10.009 2°40.46 -999 0.053456 0.332526 1.713247
2006-02-24 08:43:43 51°10.003 2°40.434 -999 0.053456 0.332526 1.713247
2006-02-24 08:43:48 51°9.996 2°40.409 -999 0.053456 0.332519 1.713247
2006-02-24 08:43:53 51°9.991 2°40.384 -999 0.053456 0.332519 1.713247
2006-02-24 08:43:58 51°9.984 2°40.359 -999 0.053456 0.332519 1.746956
2006-02-24 08:44:03 51°9.978 2°40.334 -999 0.053456 0.332519 1.713247
2006-02-24 08:44:08 51°9.972 2°40.309 -999 0.053456 0.332512 1.713247
2006-02-24 08:44:13 51°9.966 2°40.284 -999 0.053456 0.332512 1.713247
2006-02-24 08:44:18 51°9.96 2°40.258 -999 0.053456 0.332519 1.713247
2006-02-24 08:44:23 51°9.954 2°40.233 -999 0.053456 0.332512 1.713247
2006-02-24 08:44:28 51°9.948 2°40.207 -999 0.053456 0.332512 1.713247
2006-02-24 08:44:33 51°9.942 2°40.181 -999 0.053456 0.332512 1.746956
2006-02-24 08:44:38 51°9.936 2°40.156 -999 0.053456 0.332505 1.746956
2006-02-24 08:44:43 51°9.931 2°40.13 -999 0.053456 0.332505 1.746956
2006-02-24 08:44:48 51°9.926 2°40.104 -999 0.053456 0.332512 1.746956
2006-02-24 08:44:53 51°9.921 2°40.078 -999 0.053456 0.332505 1.746956
2006-02-24 08:44:58 51°9.916 2°40.052 -999 0.053456 0.332512 1.746956
2006-02-24 08:45:04 51°9.91 2°40.022 -999 0.053456 0.332519 1.746956
2006-02-24 08:45:08 51°9.904 2°40.002 -999 0.053456 0.332505 1.713247
2006-02-24 08:45:14 51°9.898 2°39.972 -999 0.053456 0.332505 1.713247
2006-02-24 08:45:18 51°9.893 2°39.952 -999 0.053456 0.332519 1.746956
2006-02-24 08:45:23 51°9.887 2°39.927 -999 0.053456 0.332519 1.713247
2006-02-24 08:45:28 51°9.88 2°39.903 -999 0.053456 0.332512 1.746956
2006-02-24 08:45:33 51°9.875 2°39.878 -999 0.053456 0.332519 1.713247
2006-02-24 08:45:38 51°9.869 2°39.853 -999 0.053456 0.332512 1.746956
2006-02-24 08:45:43 51°9.864 2°39.827 -999 0.053456 0.332512 1.746956
2006-02-24 08:45:48 51°9.857 2°39.803 -999 0.053456 0.332526 1.713247
2006-02-24 08:45:54 51°9.851 2°39.772 -999 0.053456 0.332512 1.746956
2006-02-24 08:45:58 51°9.846 2°39.753 -999 0.053456 0.332519 1.713247
2006-02-24 08:46:03 51°9.84 2°39.727 -999 0.053456 0.332519 1.713247
2006-02-24 08:46:08 51°9.834 2°39.702 -999 0.053456 0.332512 1.713247
2006-02-24 08:46:13 51°9.829 2°39.676 -999 0.053456 0.332512 1.713247
2006-02-24 08:46:18 51°9.823 2°39.651 -999 0.053456 0.332519 1.746956
2006-02-24 08:46:23 51°9.817 2°39.626 -999 0.053456 0.332512 1.746956
2006-02-24 08:46:28 51°9.811 2°39.6 -999 0.053456 0.332512 1.713247
2006-02-24 08:46:33 51°9.805 2°39.574 -999 0.053456 0.332512 1.713247
2006-02-24 08:46:38 51°9.8 2°39.549 -999 0.053456 0.332512 1.746956
2006-02-24 08:46:43 51°9.794 2°39.523 -999 0.053456 0.332512 1.746956
2006-02-24 08:46:48 51°9.79 2°39.497 -999 0.053456 0.332498 1.713247
2006-02-24 08:46:53 51°9.783 2°39.472 -999 0.053456 0.332512 1.713247
2006-02-24 08:46:58 51°9.778 2°39.446 -999 0.053456 0.332505 1.746956
2006-02-24 08:47:03 51°9.772 2°39.421 -999 0.053456 0.332505 1.746956
2006-02-24 08:47:08 51°9.766 2°39.396 -999 0.053456 0.332505 1.746956
2006-02-24 08:47:13 51°9.761 2°39.37 -999 0.053456 0.332505 1.746956
2006-02-24 08:47:18 51°9.755 2°39.345 -999 0.053456 0.332505 1.713247
2006-02-24 08:47:23 51°9.75 2°39.318 -999 0.053456 0.332505 1.746956
2006-02-24 08:47:28 51°9.744 2°39.292 -999 0.053456 0.332498 1.746956
2006-02-24 08:47:33 51°9.739 2°39.267 -999 0.053456 0.332505 1.713247
2006-02-24 08:47:38 51°9.732 2°39.241 -999 0.053456 0.332505 1.713247
2006-02-24 08:47:43 51°9.729 2°39.214 -999 0.053456 0.332505 1.713247
2006-02-24 08:47:48 51°9.722 2°39.189 -999 0.053456 0.332505 1.713247
2006-02-24 08:47:53 51°9.717 2°39.164 -999 0.053456 0.332505 1.746956
2006-02-24 08:47:58 51°9.712 2°39.138 -999 0.053456 0.332512 1.746956
2006-02-24 08:48:03 51°9.705 2°39.114 -999 0.053456 0.332505 1.713247
2006-02-24 08:48:08 51°9.7 2°39.088 -999 0.053456 0.332505 1.713247
2006-02-24 08:48:13 51°9.694 2°39.063 -999 0.053456 0.332505 1.713247
2006-02-24 08:48:18 51°9.687 2°39.039 -999 0.053456 0.332498 1.746956
2006-02-24 08:48:23 51°9.682 2°39.013 -999 0.053456 0.332505 1.746956
2006-02-24 08:48:28 51°9.674 2°38.989 -999 0.053456 0.332498 1.746956
2006-02-24 08:48:33 51°9.669 2°38.964 -999 0.053456 0.332505 1.746956
2006-02-24 08:48:38 51°9.661 2°38.94 -999 0.053456 0.332498 1.713247
2006-02-24 08:48:43 51°9.656 2°38.915 -999 0.053456 0.332498 1.713247
2006-02-24 08:48:48 51°9.649 2°38.891 -999 0.053456 0.332491 1.713247
2006-02-24 08:48:53 51°9.644 2°38.866 -999 0.053456 0.332505 1.713247
2006-02-24 08:48:58 51°9.637 2°38.841 -999 0.053456 0.332491 1.713247
2006-02-24 08:49:04 51°9.631 2°38.811 -999 0.053456 0.332498 1.746956
2006-02-24 08:49:08 51°9.625 2°38.792 -999 0.053456 0.332484 1.746956
2006-02-24 08:49:13 51°9.619 2°38.767 -999 0.053456 0.332484 1.746956
2006-02-24 08:49:18 51°9.613 2°38.742 -999 0.053456 0.332505 1.713247
2006-02-24 08:49:23 51°9.607 2°38.717 -999 0.053456 0.332491 1.746956
2006-02-24 08:49:28 51°9.602 2°38.692 -999 0.053456 0.332498 1.746956
2006-02-24 08:49:33 51°9.596 2°38.668 -999 0.053456 0.332505 1.746956
2006-02-24 08:49:38 51°9.59 2°38.643 -999 0.053456 0.332491 1.746956
2006-02-24 08:49:43 51°9.584 2°38.618 -999 0.053456 0.332491 1.746956
2006-02-24 08:49:48 51°9.576 2°38.594 -999 0.053456 0.332498 1.746956
2006-02-24 08:49:53 51°9.571 2°38.569 -999 0.053456 0.332491 1.746956
2006-02-24 08:49:58 51°9.564 2°38.544 -999 0.053456 0.332484 1.746956
2006-02-24 08:50:03 51°9.558 2°38.519 -999 0.053456 0.332484 1.713247
2006-02-24 08:50:08 51°9.552 2°38.493 -999 0.053456 0.332484 1.746956
2006-02-24 08:50:13 51°9.547 2°38.467 -999 0.053456 0.332484 1.746956
2006-02-24 08:50:18 51°9.541 2°38.442 -999 0.053456 0.332484 1.746956
2006-02-24 08:50:23 51°9.536 2°38.416 -999 0.053456 0.332484 1.713247
2006-02-24 08:50:28 51°9.53 2°38.39 -999 0.053456 0.33247 1.713247
2006-02-24 08:50:33 51°9.525 2°38.365 -999 0.053456 0.332491 1.713247
2006-02-24 08:50:38 51°9.518 2°38.34 -999 0.053456 0.332477 1.713247
2006-02-24 08:50:43 51°9.514 2°38.313 -999 0.053456 0.332477 1.713247
2006-02-24 08:50:48 51°9.507 2°38.289 -999 0.053456 0.332484 1.713247
2006-02-24 08:50:53 51°9.502 2°38.263 -999 0.053456 0.332491 1.746956
2006-02-24 08:50:58 51°9.495 2°38.238 -999 0.053456 0.332477 1.746956
2006-02-24 08:51:03 51°9.49 2°38.213 -999 0.053456 0.332491 1.746956
2006-02-24 08:51:08 51°9.483 2°38.189 -999 0.053456 0.332477 1.746956
2006-02-24 08:51:13 51°9.478 2°38.163 -999 0.053456 0.332477 1.746956
2006-02-24 08:51:18 51°9.47 2°38.138 -999 0.053456 0.332484 1.746956
2006-02-24 08:51:23 51°9.467 2°38.111 -999 0.053456 0.332491 1.746956
2006-02-24 08:51:28 51°9.461 2°38.087 -999 0.053456 0.332491 1.746956
2006-02-24 08:51:33 51°9.455 2°38.061 -999 0.053456 0.332484 1.746956
2006-02-24 08:51:38 51°9.451 2°38.035 -999 0.053456 0.332491 1.746956
2006-02-24 08:51:43 51°9.444 2°38.01 -999 0.053456 0.332491 1.746956
2006-02-24 08:51:48 51°9.438 2°37.985 -999 0.053456 0.332491 1.746956
2006-02-24 08:51:53 51°9.433 2°37.959 -999 0.053456 0.332484 1.713247
2006-02-24 08:51:58 51°9.427 2°37.933 -999 0.053456 0.332477 1.746956
2006-02-24 08:52:03 51°9.422 2°37.907 -999 0.053456 0.332477 1.746956
2006-02-24 08:52:08 51°9.417 2°37.882 -999 0.053456 0.332477 1.746956
2006-02-24 08:52:13 51°9.411 2°37.857 -999 0.053456 0.332477 1.746956
2006-02-24 08:52:18 51°9.406 2°37.831 -999 0.053456 0.33247 1.746956
2006-02-24 08:52:23 51°9.401 2°37.806 -999 0.053456 0.33247 1.746956
2006-02-24 08:52:28 51°9.395 2°37.78 -999 0.053456 0.332463 1.746956
2006-02-24 08:52:33 51°9.389 2°37.755 -999 0.053456 0.33247 1.746956
2006-02-24 08:52:39 51°9.382 2°37.725 -999 0.053456 0.332463 1.746956
2006-02-24 08:52:43 51°9.378 2°37.704 -999 0.053456 0.332463 1.746956
2006-02-24 08:52:48 51°9.371 2°37.68 -999 0.053456 0.33247 1.713247
2006-02-24 08:52:52 51°9.368 2°37.658 -999 0.053456 0.33247 1.746956
2006-02-24 08:52:58 51°9.36 2°37.628 -999 0.053456 0.332463 1.746956
2006-02-24 08:53:03 51°9.356 2°37.602 -999 0.053456 0.332477 1.746956
2006-02-24 08:53:08 51°9.349 2°37.576 -999 0.053456 0.332463 1.746956
2006-02-24 08:53:13 51°9.345 2°37.55 -999 0.053456 0.332463 1.746956
2006-02-24 08:53:18 51°9.338 2°37.526 -999 0.053456 0.33247 1.746956
2006-02-24 08:53:23 51°9.333 2°37.5 -999 0.053456 0.33247 1.746956
2006-02-24 08:53:28 51°9.328 2°37.473 -999 0.053456 0.33247 1.746956
2006-02-24 08:53:33 51°9.322 2°37.448 -999 0.053456 0.33247 1.746956
2006-02-24 08:53:38 51°9.317 2°37.422 -999 0.053456 0.332463 1.746956
2006-02-24 08:53:43 51°9.312 2°37.397 -999 0.053456 0.332463 1.746956
2006-02-24 08:53:48 51°9.306 2°37.371 -999 0.053456 0.33247 1.746956
2006-02-24 08:53:53 51°9.301 2°37.345 -999 0.053456 0.332463 1.746956
2006-02-24 08:53:58 51°9.295 2°37.32 -999 0.053456 0.332463 1.746956
2006-02-24 08:54:04 51°9.289 2°37.288 -999 0.053456 0.332456 1.746956
2006-02-24 08:54:08 51°9.285 2°37.268 -999 0.053456 0.332463 1.713247
2006-02-24 08:54:13 51°9.279 2°37.243 -999 0.053456 0.332463 1.713247
2006-02-24 08:54:18 51°9.274 2°37.217 -999 0.053456 0.332449 1.746956
2006-02-24 08:54:23 51°9.268 2°37.191 -999 0.053456 0.332456 1.746956
2006-02-24 08:54:28 51°9.264 2°37.165 -999 0.053456 0.332463 1.746956
2006-02-24 08:54:33 51°9.258 2°37.14 -999 0.053456 0.332456 1.746956
2006-02-24 08:54:38 51°9.253 2°37.114 -999 0.053456 0.332463 1.746956
2006-02-24 08:54:43 51°9.248 2°37.089 -999 0.053456 0.332463 1.746956
2006-02-24 08:54:48 51°9.242 2°37.064 -999 0.053456 0.332456 1.746956
2006-02-24 08:54:53 51°9.236 2°37.039 -999 0.053456 0.332456 1.746956
2006-02-24 08:54:58 51°9.231 2°37.014 -999 0.053456 0.332463 1.746956
2006-02-24 08:55:03 51°9.225 2°36.989 -999 0.053456 0.332442 1.746956
2006-02-24 08:55:08 51°9.22 2°36.963 -999 0.053456 0.332456 1.746956
2006-02-24 08:55:13 51°9.214 2°36.939 -999 0.053456 0.332456 1.746956
2006-02-24 08:55:18 51°9.209 2°36.913 -999 0.053456 0.332442 1.746956
2006-02-24 08:55:24 51°9.201 2°36.884 -999 0.053456 0.332463 1.746956
2006-02-24 08:55:28 51°9.198 2°36.863 -999 0.053456 0.332449 1.746956
2006-02-24 08:55:33 51°9.192 2°36.838 -999 0.053456 0.332449 1.746956
2006-02-24 08:55:38 51°9.186 2°36.812 -999 0.053456 0.332456 1.746956
2006-02-24 08:55:43 51°9.181 2°36.786 -999 0.053456 0.332456 1.746956
2006-02-24 08:55:48 51°9.176 2°36.761 -999 0.053456 0.332449 1.746956
2006-02-24 08:55:53 51°9.171 2°36.735 -999 0.053456 0.332456 1.746956
2006-02-24 08:55:58 51°9.167 2°36.709 -999 0.053456 0.332449 1.746956
2006-02-24 08:56:03 51°9.161 2°36.684 -999 0.053456 0.332449 1.746956
2006-02-24 08:56:08 51°9.156 2°36.659 -999 0.053456 0.332456 1.746956
2006-02-24 08:56:13 51°9.15 2°36.634 -999 0.053456 0.332456 1.746956
2006-02-24 08:56:18 51°9.145 2°36.609 -999 0.053456 0.332442 1.746956
2006-02-24 08:56:23 51°9.138 2°36.584 -999 0.053456 0.332442 1.746956
2006-02-24 08:56:28 51°9.133 2°36.559 -999 0.053456 0.332435 1.746956
2006-02-24 08:56:34 51°9.124 2°36.53 -999 0.053456 0.332435 1.746956
2006-02-24 08:56:38 51°9.121 2°36.509 -999 0.053456 0.332442 1.746956
2006-02-24 08:56:43 51°9.115 2°36.484 -999 0.053456 0.332442 1.746956
2006-02-24 08:56:48 51°9.108 2°36.46 -999 0.053456 0.332442 1.746956
2006-02-24 08:56:53 51°9.103 2°36.435 -999 0.053456 0.332442 1.746956
2006-02-24 08:56:58 51°9.097 2°36.41 -999 0.053456 0.332435 1.746956
2006-02-24 08:57:03 51°9.091 2°36.385 -999 0.053456 0.332435 1.746956
2006-02-24 08:57:08 51°9.086 2°36.359 -999 0.053456 0.332442 1.746956
2006-02-24 08:57:13 51°9.079 2°36.335 -999 0.053456 0.332442 1.746956
2006-02-24 08:57:18 51°9.075 2°36.308 -999 0.053456 0.332428 1.746956
2006-02-24 08:57:23 51°9.069 2°36.283 -999 0.053456 0.332435 1.746956
2006-02-24 08:57:28 51°9.065 2°36.257 -999 0.053456 0.332428 1.746956
2006-02-24 08:57:32 51°9.061 2°36.236 -999 0.053456 0.332428 1.746956
2006-02-24 08:57:38 51°9.054 2°36.205 -999 0.053456 0.332428 1.746956
2006-02-24 08:57:43 51°9.049 2°36.18 -999 0.053456 0.332428 1.746956
2006-02-24 08:57:48 51°9.044 2°36.154 -999 0.053456 0.332435 1.746956
2006-02-24 08:57:52 51°9.039 2°36.134 -999 0.053456 0.332421 1.746956
2006-02-24 08:57:58 51°9.033 2°36.104 -999 0.053456 0.332435 1.746956
2006-02-24 08:58:03 51°9.027 2°36.079 -999 0.053456 0.332428 1.746956
2006-02-24 08:58:08 51°9.021 2°36.054 -999 0.053456 0.332421 1.746956
2006-02-24 08:58:13 51°9.016 2°36.029 -999 0.053456 0.332421 1.746956
2006-02-24 08:58:18 51°9.009 2°36.005 -999 0.053456 0.332428 1.746956
2006-02-24 08:58:23 51°9.004 2°35.98 -999 0.053456 0.332421 1.746956
2006-02-24 08:58:28 51°8.998 2°35.955 -999 0.053456 0.332421 1.746956
2006-02-24 08:58:33 51°8.992 2°35.93 -999 0.053456 0.332414 1.746956
2006-02-24 08:58:38 51°8.987 2°35.904 -999 0.053456 0.332421 1.746956
2006-02-24 08:58:43 51°8.982 2°35.879 -999 0.053456 0.332421 1.746956
2006-02-24 08:58:48 51°8.976 2°35.853 -999 0.053456 0.332421 1.746956
2006-02-24 08:58:53 51°8.971 2°35.827 -999 0.053456 0.332407 1.746956
2006-02-24 08:58:58 51°8.967 2°35.802 -999 0.053456 0.332421 1.746956
2006-02-24 08:59:03 51°8.961 2°35.777 -999 0.053456 0.3324 1.746956
2006-02-24 08:59:08 51°8.957 2°35.751 -999 0.053456 0.332421 1.746956
2006-02-24 08:59:13 51°8.95 2°35.727 -999 0.053456 0.332421 1.746956
2006-02-24 08:59:18 51°8.945 2°35.702 -999 0.053456 0.332407 1.746956
2006-02-24 08:59:23 51°8.939 2°35.677 -999 0.053456 0.332421 1.746956
2006-02-24 08:59:28 51°8.933 2°35.652 -999 0.053456 0.332407 1.746956
2006-02-24 08:59:33 51°8.928 2°35.627 -999 0.053456 0.332407 1.746956
2006-02-24 08:59:38 51°8.922 2°35.602 -999 0.053456 0.332407 1.746956
2006-02-24 08:59:43 51°8.917 2°35.577 -999 0.053456 0.332407 1.746956
2006-02-24 08:59:48 51°8.911 2°35.552 -999 0.053456 0.332407 1.746956
2006-02-24 08:59:53 51°8.905 2°35.527 -999 0.053456 0.332407 1.746956
2006-02-24 08:59:58 51°8.9 2°35.502 -999 0.053456 0.3324 1.746956
2006-02-24 09:00:03 51°8.894 2°35.477 -999 0.053456 0.3324 1.746956
2006-02-24 09:00:08 51°8.889 2°35.451 -999 0.053456 0.3324 1.746956
2006-02-24 09:00:13 51°8.883 2°35.426 -999 0.053456 0.3324 1.746956
2006-02-24 09:00:18 51°8.878 2°35.4 -999 0.053456 0.332393 1.746956
2006-02-24 09:00:23 51°8.872 2°35.375 -999 0.053456 0.332393 1.746956
2006-02-24 09:00:28 51°8.868 2°35.349 -999 0.053456 0.332386 1.746956
2006-02-24 09:00:33 51°8.863 2°35.323 -999 0.053456 0.332393 1.746956
2006-02-24 09:00:38 51°8.858 2°35.298 -999 0.053456 0.3324 1.746956
2006-02-24 09:00:43 51°8.852 2°35.273 -999 0.053456 0.3324 1.746956
2006-02-24 09:00:48 51°8.848 2°35.247 -999 0.053456 0.332379 1.746956
2006-02-24 09:00:53 51°8.842 2°35.222 -999 0.053456 0.332393 1.746956
2006-02-24 09:00:58 51°8.837 2°35.196 -999 0.053456 0.332386 1.746956
2006-02-24 09:01:03 51°8.831 2°35.17 -999 0.053456 0.332386 1.746956
2006-02-24 09:01:08 51°8.826 2°35.145 -999 0.053456 0.332379 1.713247
2006-02-24 09:01:14 51°8.821 2°35.114 -999 0.053456 0.332379 1.713247
2006-02-24 09:01:18 51°8.816 2°35.094 -999 0.053456 0.332393 1.746956
2006-02-24 09:01:23 51°8.811 2°35.068 -999 0.053456 0.332379 1.746956
2006-02-24 09:01:28 51°8.805 2°35.043 -999 0.053456 0.332393 1.746956
2006-02-24 09:01:33 51°8.8 2°35.018 -999 0.053456 0.332386 1.746956
2006-02-24 09:01:38 51°8.794 2°34.993 -999 0.053456 0.332379 1.746956
2006-02-24 09:01:43 51°8.788 2°34.967 -999 0.053456 0.332379 1.746956
2006-02-24 09:01:48 51°8.783 2°34.942 -999 0.053456 0.332393 1.746956
2006-02-24 09:01:53 51°8.777 2°34.917 -999 0.053456 0.332379 1.746956
2006-02-24 09:01:58 51°8.771 2°34.892 -999 0.053456 0.332393 1.746956
2006-02-24 09:02:03 51°8.765 2°34.866 -999 0.053456 0.332379 1.746956
2006-02-24 09:02:08 51°8.76 2°34.841 -999 0.053456 0.332393 1.746956
2006-02-24 09:02:13 51°8.754 2°34.816 -999 0.053456 0.332393 1.746956
2006-02-24 09:02:18 51°8.749 2°34.79 -999 0.053456 0.332379 1.746956
2006-02-24 09:02:23 51°8.743 2°34.765 -999 0.053456 0.332379 1.746956
2006-02-24 09:02:28 51°8.737 2°34.741 -999 0.053456 0.332386 1.746956
2006-02-24 09:02:34 51°8.73 2°34.71 -999 0.053456 0.332372 1.746956
2006-02-24 09:02:38 51°8.726 2°34.69 -999 0.053456 0.332372 1.746956
2006-02-24 09:02:43 51°8.719 2°34.666 -999 0.053456 0.332372 1.746956
2006-02-24 09:02:48 51°8.714 2°34.64 -999 0.053456 0.332372 1.746956
2006-02-24 09:02:53 51°8.708 2°34.615 -999 0.053456 0.332358 1.746956
2006-02-24 09:02:58 51°8.704 2°34.589 -999 0.053456 0.332365 1.746956
2006-02-24 09:03:03 51°8.698 2°34.564 -999 0.053456 0.332365 1.746956
2006-02-24 09:03:08 51°8.693 2°34.538 -999 0.053456 0.332358 1.746956
2006-02-24 09:03:13 51°8.687 2°34.513 -999 0.053456 0.332358 1.746956
2006-02-24 09:03:18 51°8.681 2°34.488 -999 0.053456 0.332365 1.746956
2006-02-24 09:03:23 51°8.674 2°34.464 -999 0.053456 0.332358 1.746956
2006-02-24 09:03:28 51°8.666 2°34.44 -999 0.053456 0.332365 1.746956
2006-02-24 09:03:33 51°8.658 2°34.416 -999 0.053456 0.332358 1.746956
2006-02-24 09:03:38 51°8.651 2°34.392 -999 0.053456 0.332365 1.746956
2006-02-24 09:03:43 51°8.642 2°34.369 -999 0.053456 0.332365 1.746956
2006-02-24 09:03:48 51°8.635 2°34.345 -999 0.053456 0.332351 1.746956
2006-02-24 09:03:53 51°8.626 2°34.322 -999 0.053456 0.332365 1.746956
2006-02-24 09:03:58 51°8.618 2°34.297 -999 0.053456 0.332351 1.746956
2006-02-24 09:04:03 51°8.61 2°34.274 -999 0.053456 0.332365 1.746956